<?xml version="1.0" encoding="UTF-8"?>
<gpx xmlns="http://www.topografix.com/GPX/1/1" xmlns:gpsies="http://www.gpsies.com/GPX/1/0" creator="GPSies http://www.gpsies.com - &amp;#1082;&amp;#1080;&amp;#1089;&amp;#1072;&amp;#1083;&amp;#1086;&amp;#1085;-&amp;#1094;&amp;#1091;&amp;#1073;&amp;#1072;" version="1.1" xmlns:xsi="http://www.w3.org/2001/XMLSchema-instance" xsi:schemaLocation="http://www.topografix.com/GPX/1/1 http://www.topografix.com/GPX/1/1/gpx.xsd http://www.gpsies.com/GPX/1/0 http://www.gpsies.com/gpsies.xsd">
  <metadata>
    <name>кисалон-цуба</name>
    <author>
      <name>igor968</name>
      <link href="http://www.gpsies.com/mapUser.do?username=igor968">
        <text>igor968 on GPSies.com</text>
        <type>GPSiesUserOnWeb</type>
      </link>
    </author>
    <link href="http://www.gpsies.com/map.do?fileId=tlclvxymybuwrnem">
      <text>кисалон-цуба on GPSies.com</text>
      <type>trackOnWeb</type>
    </link>
    <time>2017-09-28T18:12:04Z</time>
    <extensions>
      <gpsies:property>round trip</gpsies:property>
      <gpsies:trackLengthMeter>26598.274424685827</gpsies:trackLengthMeter>
      <gpsies:totalAscentMeter>557.0</gpsies:totalAscentMeter>
      <gpsies:totalDescentMeter>567.0</gpsies:totalDescentMeter>
      <gpsies:minHeightMeter>266.0</gpsies:minHeightMeter>
      <gpsies:maxHeightMeter>697.0</gpsies:maxHeightMeter>
    </extensions>
  </metadata>
  <trk>
    <name>кисалон-цуба on GPSies.com</name>
    <link href="http://www.gpsies.com/map.do?fileId=tlclvxymybuwrnem">
      <type>trackOnWeb</type>
    </link>
    <link href="http://www.gpsies.com/charts/tl/map/tlclvxymybuwrnem_map.png">
      <type>elevationChartUrlMap</type>
    </link>
    <link href="http://www.gpsies.com/charts/tl/mapThumb/tlclvxymybuwrnem_mapThumb.png">
      <type>elevationChartUrlMapThumb</type>
    </link>
    <link href="http://www.gpsies.com/charts/tl/tab/tlclvxymybuwrnem_tab.png">
      <type>elevationChartUrlTab</type>
    </link>
    <trkseg>
      <trkpt lat="31.77742220" lon="35.01606700">
        <ele>280.00000</ele>
        <time>2010-01-01T00:00:00Z</time>
      </trkpt>
      <trkpt lat="31.77745000" lon="35.01600000">
        <ele>278.00000</ele>
        <time>2010-01-01T00:00:02Z</time>
      </trkpt>
      <trkpt lat="31.77751000" lon="35.01604000">
        <ele>276.00000</ele>
        <time>2010-01-01T00:00:05Z</time>
      </trkpt>
      <trkpt lat="31.77762000" lon="35.01606000">
        <ele>273.00000</ele>
        <time>2010-01-01T00:00:09Z</time>
      </trkpt>
      <trkpt lat="31.77768000" lon="35.01607000">
        <ele>272.00000</ele>
        <time>2010-01-01T00:00:12Z</time>
      </trkpt>
      <trkpt lat="31.77789000" lon="35.01599000">
        <ele>267.00000</ele>
        <time>2010-01-01T00:00:21Z</time>
      </trkpt>
      <trkpt lat="31.77800000" lon="35.01594000">
        <ele>266.00000</ele>
        <time>2010-01-01T00:00:25Z</time>
      </trkpt>
      <trkpt lat="31.77801000" lon="35.01594000">
        <ele>266.00000</ele>
        <time>2010-01-01T00:00:26Z</time>
      </trkpt>
      <trkpt lat="31.77817000" lon="35.01594000">
        <ele>266.00000</ele>
        <time>2010-01-01T00:00:32Z</time>
      </trkpt>
      <trkpt lat="31.77819000" lon="35.01596000">
        <ele>266.00000</ele>
        <time>2010-01-01T00:00:33Z</time>
      </trkpt>
      <trkpt lat="31.77819000" lon="35.01595000">
        <ele>266.00000</ele>
        <time>2010-01-01T00:00:33Z</time>
      </trkpt>
      <trkpt lat="31.77819000" lon="35.01596000">
        <ele>266.00000</ele>
        <time>2010-01-01T00:00:34Z</time>
      </trkpt>
      <trkpt lat="31.77826000" lon="35.01604000">
        <ele>266.00000</ele>
        <time>2010-01-01T00:00:38Z</time>
      </trkpt>
      <trkpt lat="31.77825000" lon="35.01645000">
        <ele>269.00000</ele>
        <time>2010-01-01T00:00:52Z</time>
      </trkpt>
      <trkpt lat="31.77833000" lon="35.01673000">
        <ele>273.00000</ele>
        <time>2010-01-01T00:01:02Z</time>
      </trkpt>
      <trkpt lat="31.77840000" lon="35.01703000">
        <ele>277.00000</ele>
        <time>2010-01-01T00:01:12Z</time>
      </trkpt>
      <trkpt lat="31.77859000" lon="35.01751000">
        <ele>278.00000</ele>
        <time>2010-01-01T00:01:30Z</time>
      </trkpt>
      <trkpt lat="31.77873000" lon="35.01772000">
        <ele>280.00000</ele>
        <time>2010-01-01T00:01:39Z</time>
      </trkpt>
      <trkpt lat="31.77887000" lon="35.01787000">
        <ele>283.00000</ele>
        <time>2010-01-01T00:01:47Z</time>
      </trkpt>
      <trkpt lat="31.77993000" lon="35.01820000">
        <ele>282.00000</ele>
        <time>2010-01-01T00:02:31Z</time>
      </trkpt>
      <trkpt lat="31.78016000" lon="35.01833000">
        <ele>283.00000</ele>
        <time>2010-01-01T00:02:41Z</time>
      </trkpt>
      <trkpt lat="31.78020000" lon="35.01837000">
        <ele>284.00000</ele>
        <time>2010-01-01T00:02:43Z</time>
      </trkpt>
      <trkpt lat="31.78019000" lon="35.01837000">
        <ele>284.00000</ele>
        <time>2010-01-01T00:02:44Z</time>
      </trkpt>
      <trkpt lat="31.78030000" lon="35.01849000">
        <ele>284.00000</ele>
        <time>2010-01-01T00:02:50Z</time>
      </trkpt>
      <trkpt lat="31.78043000" lon="35.01878000">
        <ele>283.00000</ele>
        <time>2010-01-01T00:03:01Z</time>
      </trkpt>
      <trkpt lat="31.78050000" lon="35.01897000">
        <ele>282.00000</ele>
        <time>2010-01-01T00:03:08Z</time>
      </trkpt>
      <trkpt lat="31.78057000" lon="35.01934000">
        <ele>282.00000</ele>
        <time>2010-01-01T00:03:21Z</time>
      </trkpt>
      <trkpt lat="31.78058000" lon="35.01956000">
        <ele>282.00000</ele>
        <time>2010-01-01T00:03:28Z</time>
      </trkpt>
      <trkpt lat="31.78056000" lon="35.01977000">
        <ele>280.00000</ele>
        <time>2010-01-01T00:03:35Z</time>
      </trkpt>
      <trkpt lat="31.78049000" lon="35.02005000">
        <ele>282.00000</ele>
        <time>2010-01-01T00:03:45Z</time>
      </trkpt>
      <trkpt lat="31.78027000" lon="35.02049000">
        <ele>285.00000</ele>
        <time>2010-01-01T00:04:03Z</time>
      </trkpt>
      <trkpt lat="31.77978000" lon="35.02133000">
        <ele>293.00000</ele>
        <time>2010-01-01T00:04:37Z</time>
      </trkpt>
      <trkpt lat="31.77955000" lon="35.02172000">
        <ele>295.00000</ele>
        <time>2010-01-01T00:04:53Z</time>
      </trkpt>
      <trkpt lat="31.77936000" lon="35.02208000">
        <ele>296.00000</ele>
        <time>2010-01-01T00:05:08Z</time>
      </trkpt>
      <trkpt lat="31.77915000" lon="35.02252000">
        <ele>297.00000</ele>
        <time>2010-01-01T00:05:25Z</time>
      </trkpt>
      <trkpt lat="31.77889000" lon="35.02317000">
        <ele>292.00000</ele>
        <time>2010-01-01T00:05:50Z</time>
      </trkpt>
      <trkpt lat="31.77881000" lon="35.02337000">
        <ele>293.00000</ele>
        <time>2010-01-01T00:05:57Z</time>
      </trkpt>
      <trkpt lat="31.77865000" lon="35.02370000">
        <ele>295.00000</ele>
        <time>2010-01-01T00:06:10Z</time>
      </trkpt>
      <trkpt lat="31.77857000" lon="35.02384000">
        <ele>297.00000</ele>
        <time>2010-01-01T00:06:16Z</time>
      </trkpt>
      <trkpt lat="31.77808000" lon="35.02451000">
        <ele>295.00000</ele>
        <time>2010-01-01T00:06:46Z</time>
      </trkpt>
      <trkpt lat="31.77801000" lon="35.02462000">
        <ele>297.00000</ele>
        <time>2010-01-01T00:06:50Z</time>
      </trkpt>
      <trkpt lat="31.77794000" lon="35.02481000">
        <ele>299.00000</ele>
        <time>2010-01-01T00:06:58Z</time>
      </trkpt>
      <trkpt lat="31.77776000" lon="35.02559000">
        <ele>297.00000</ele>
        <time>2010-01-01T00:07:25Z</time>
      </trkpt>
      <trkpt lat="31.77769000" lon="35.02578000">
        <ele>300.00000</ele>
        <time>2010-01-01T00:07:32Z</time>
      </trkpt>
      <trkpt lat="31.77762000" lon="35.02588000">
        <ele>302.00000</ele>
        <time>2010-01-01T00:07:36Z</time>
      </trkpt>
      <trkpt lat="31.77737000" lon="35.02607000">
        <ele>309.00000</ele>
        <time>2010-01-01T00:07:48Z</time>
      </trkpt>
      <trkpt lat="31.77726000" lon="35.02617000">
        <ele>312.00000</ele>
        <time>2010-01-01T00:07:54Z</time>
      </trkpt>
      <trkpt lat="31.77719000" lon="35.02627000">
        <ele>314.00000</ele>
        <time>2010-01-01T00:07:58Z</time>
      </trkpt>
      <trkpt lat="31.77714000" lon="35.02638000">
        <ele>316.00000</ele>
        <time>2010-01-01T00:08:03Z</time>
      </trkpt>
      <trkpt lat="31.77712000" lon="35.02655000">
        <ele>318.00000</ele>
        <time>2010-01-01T00:08:08Z</time>
      </trkpt>
      <trkpt lat="31.77714000" lon="35.02667000">
        <ele>318.00000</ele>
        <time>2010-01-01T00:08:13Z</time>
      </trkpt>
      <trkpt lat="31.77724000" lon="35.02690000">
        <ele>319.00000</ele>
        <time>2010-01-01T00:08:21Z</time>
      </trkpt>
      <trkpt lat="31.77733000" lon="35.02703000">
        <ele>320.00000</ele>
        <time>2010-01-01T00:08:27Z</time>
      </trkpt>
      <trkpt lat="31.77741000" lon="35.02712000">
        <ele>321.00000</ele>
        <time>2010-01-01T00:08:32Z</time>
      </trkpt>
      <trkpt lat="31.77754000" lon="35.02720000">
        <ele>320.00000</ele>
        <time>2010-01-01T00:08:37Z</time>
      </trkpt>
      <trkpt lat="31.77812000" lon="35.02744000">
        <ele>325.00000</ele>
        <time>2010-01-01T00:09:02Z</time>
      </trkpt>
      <trkpt lat="31.77819000" lon="35.02752000">
        <ele>326.00000</ele>
        <time>2010-01-01T00:09:06Z</time>
      </trkpt>
      <trkpt lat="31.77822000" lon="35.02760000">
        <ele>327.00000</ele>
        <time>2010-01-01T00:09:09Z</time>
      </trkpt>
      <trkpt lat="31.77816000" lon="35.02819000">
        <ele>329.00000</ele>
        <time>2010-01-01T00:09:29Z</time>
      </trkpt>
      <trkpt lat="31.77814000" lon="35.02964000">
        <ele>332.00000</ele>
        <time>2010-01-01T00:10:18Z</time>
      </trkpt>
      <trkpt lat="31.77810000" lon="35.03002000">
        <ele>332.00000</ele>
        <time>2010-01-01T00:10:31Z</time>
      </trkpt>
      <trkpt lat="31.77804000" lon="35.03021000">
        <ele>333.00000</ele>
        <time>2010-01-01T00:10:38Z</time>
      </trkpt>
      <trkpt lat="31.77788000" lon="35.03055000">
        <ele>334.00000</ele>
        <time>2010-01-01T00:10:52Z</time>
      </trkpt>
      <trkpt lat="31.77774000" lon="35.03074000">
        <ele>335.00000</ele>
        <time>2010-01-01T00:11:00Z</time>
      </trkpt>
      <trkpt lat="31.77760000" lon="35.03084000">
        <ele>337.00000</ele>
        <time>2010-01-01T00:11:07Z</time>
      </trkpt>
      <trkpt lat="31.77746000" lon="35.03097000">
        <ele>338.00000</ele>
        <time>2010-01-01T00:11:14Z</time>
      </trkpt>
      <trkpt lat="31.77732000" lon="35.03115000">
        <ele>341.00000</ele>
        <time>2010-01-01T00:11:22Z</time>
      </trkpt>
      <trkpt lat="31.77724000" lon="35.03134000">
        <ele>339.00000</ele>
        <time>2010-01-01T00:11:29Z</time>
      </trkpt>
      <trkpt lat="31.77717000" lon="35.03154000">
        <ele>338.00000</ele>
        <time>2010-01-01T00:11:37Z</time>
      </trkpt>
      <trkpt lat="31.77702000" lon="35.03188000">
        <ele>338.00000</ele>
        <time>2010-01-01T00:11:50Z</time>
      </trkpt>
      <trkpt lat="31.77716000" lon="35.03207000">
        <ele>338.00000</ele>
        <time>2010-01-01T00:11:58Z</time>
      </trkpt>
      <trkpt lat="31.77744000" lon="35.03234000">
        <ele>339.00000</ele>
        <time>2010-01-01T00:12:13Z</time>
      </trkpt>
      <trkpt lat="31.77781000" lon="35.03274000">
        <ele>341.00000</ele>
        <time>2010-01-01T00:12:33Z</time>
      </trkpt>
      <trkpt lat="31.77804000" lon="35.03311000">
        <ele>342.00000</ele>
        <time>2010-01-01T00:12:49Z</time>
      </trkpt>
      <trkpt lat="31.77825000" lon="35.03352000">
        <ele>347.00000</ele>
        <time>2010-01-01T00:13:05Z</time>
      </trkpt>
      <trkpt lat="31.77825000" lon="35.03351000">
        <ele>347.00000</ele>
        <time>2010-01-01T00:13:05Z</time>
      </trkpt>
      <trkpt lat="31.77850000" lon="35.03401000">
        <ele>349.00000</ele>
        <time>2010-01-01T00:13:25Z</time>
      </trkpt>
      <trkpt lat="31.77858000" lon="35.03413000">
        <ele>347.00000</ele>
        <time>2010-01-01T00:13:30Z</time>
      </trkpt>
      <trkpt lat="31.77881000" lon="35.03436000">
        <ele>346.00000</ele>
        <time>2010-01-01T00:13:42Z</time>
      </trkpt>
      <trkpt lat="31.77945000" lon="35.03490000">
        <ele>347.00000</ele>
        <time>2010-01-01T00:14:14Z</time>
      </trkpt>
      <trkpt lat="31.77953000" lon="35.03499000">
        <ele>348.00000</ele>
        <time>2010-01-01T00:14:18Z</time>
      </trkpt>
      <trkpt lat="31.77962000" lon="35.03515000">
        <ele>349.00000</ele>
        <time>2010-01-01T00:14:25Z</time>
      </trkpt>
      <trkpt lat="31.77968000" lon="35.03531000">
        <ele>349.00000</ele>
        <time>2010-01-01T00:14:31Z</time>
      </trkpt>
      <trkpt lat="31.77971000" lon="35.03547000">
        <ele>349.00000</ele>
        <time>2010-01-01T00:14:36Z</time>
      </trkpt>
      <trkpt lat="31.77971000" lon="35.03576000">
        <ele>350.00000</ele>
        <time>2010-01-01T00:14:46Z</time>
      </trkpt>
      <trkpt lat="31.77967000" lon="35.03605000">
        <ele>353.00000</ele>
        <time>2010-01-01T00:14:56Z</time>
      </trkpt>
      <trkpt lat="31.77967000" lon="35.03620000">
        <ele>354.00000</ele>
        <time>2010-01-01T00:15:01Z</time>
      </trkpt>
      <trkpt lat="31.77964000" lon="35.03642000">
        <ele>357.00000</ele>
        <time>2010-01-01T00:15:09Z</time>
      </trkpt>
      <trkpt lat="31.77963000" lon="35.03686000">
        <ele>360.00000</ele>
        <time>2010-01-01T00:15:24Z</time>
      </trkpt>
      <trkpt lat="31.77965000" lon="35.03701000">
        <ele>358.00000</ele>
        <time>2010-01-01T00:15:29Z</time>
      </trkpt>
      <trkpt lat="31.77985000" lon="35.03770000">
        <ele>361.00000</ele>
        <time>2010-01-01T00:15:54Z</time>
      </trkpt>
      <trkpt lat="31.77993000" lon="35.03786000">
        <ele>362.00000</ele>
        <time>2010-01-01T00:16:00Z</time>
      </trkpt>
      <trkpt lat="31.78009000" lon="35.03812000">
        <ele>363.00000</ele>
        <time>2010-01-01T00:16:11Z</time>
      </trkpt>
      <trkpt lat="31.78087000" lon="35.03909000">
        <ele>363.00000</ele>
        <time>2010-01-01T00:16:56Z</time>
      </trkpt>
      <trkpt lat="31.78096000" lon="35.03919000">
        <ele>365.00000</ele>
        <time>2010-01-01T00:17:01Z</time>
      </trkpt>
      <trkpt lat="31.78169000" lon="35.03980000">
        <ele>374.00000</ele>
        <time>2010-01-01T00:17:37Z</time>
      </trkpt>
      <trkpt lat="31.78169000" lon="35.03979000">
        <ele>373.00000</ele>
        <time>2010-01-01T00:17:38Z</time>
      </trkpt>
      <trkpt lat="31.78207000" lon="35.04011000">
        <ele>376.00000</ele>
        <time>2010-01-01T00:17:56Z</time>
      </trkpt>
      <trkpt lat="31.78226000" lon="35.04023000">
        <ele>378.00000</ele>
        <time>2010-01-01T00:18:05Z</time>
      </trkpt>
      <trkpt lat="31.78236000" lon="35.04026000">
        <ele>378.00000</ele>
        <time>2010-01-01T00:18:09Z</time>
      </trkpt>
      <trkpt lat="31.78252000" lon="35.04030000">
        <ele>378.00000</ele>
        <time>2010-01-01T00:18:16Z</time>
      </trkpt>
      <trkpt lat="31.78273000" lon="35.04031000">
        <ele>376.00000</ele>
        <time>2010-01-01T00:18:24Z</time>
      </trkpt>
      <trkpt lat="31.78296000" lon="35.04036000">
        <ele>374.00000</ele>
        <time>2010-01-01T00:18:33Z</time>
      </trkpt>
      <trkpt lat="31.78324000" lon="35.04048000">
        <ele>376.00000</ele>
        <time>2010-01-01T00:18:45Z</time>
      </trkpt>
      <trkpt lat="31.78355000" lon="35.04058000">
        <ele>378.00000</ele>
        <time>2010-01-01T00:18:58Z</time>
      </trkpt>
      <trkpt lat="31.78386000" lon="35.04076000">
        <ele>381.00000</ele>
        <time>2010-01-01T00:19:12Z</time>
      </trkpt>
      <trkpt lat="31.78394000" lon="35.04083000">
        <ele>382.00000</ele>
        <time>2010-01-01T00:19:16Z</time>
      </trkpt>
      <trkpt lat="31.78410000" lon="35.04105000">
        <ele>385.00000</ele>
        <time>2010-01-01T00:19:26Z</time>
      </trkpt>
      <trkpt lat="31.78463000" lon="35.04204000">
        <ele>387.00000</ele>
        <time>2010-01-01T00:20:06Z</time>
      </trkpt>
      <trkpt lat="31.78472000" lon="35.04228000">
        <ele>389.00000</ele>
        <time>2010-01-01T00:20:15Z</time>
      </trkpt>
      <trkpt lat="31.78478000" lon="35.04263000">
        <ele>390.00000</ele>
        <time>2010-01-01T00:20:27Z</time>
      </trkpt>
      <trkpt lat="31.78479000" lon="35.04314000">
        <ele>392.00000</ele>
        <time>2010-01-01T00:20:44Z</time>
      </trkpt>
      <trkpt lat="31.78481000" lon="35.04326000">
        <ele>390.00000</ele>
        <time>2010-01-01T00:20:48Z</time>
      </trkpt>
      <trkpt lat="31.78480000" lon="35.04326000">
        <ele>391.00000</ele>
        <time>2010-01-01T00:20:49Z</time>
      </trkpt>
      <trkpt lat="31.78488000" lon="35.04368000">
        <ele>388.00000</ele>
        <time>2010-01-01T00:21:03Z</time>
      </trkpt>
      <trkpt lat="31.78500000" lon="35.04418000">
        <ele>390.00000</ele>
        <time>2010-01-01T00:21:21Z</time>
      </trkpt>
      <trkpt lat="31.78501000" lon="35.04435000">
        <ele>390.00000</ele>
        <time>2010-01-01T00:21:27Z</time>
      </trkpt>
      <trkpt lat="31.78508000" lon="35.04488000">
        <ele>393.00000</ele>
        <time>2010-01-01T00:21:45Z</time>
      </trkpt>
      <trkpt lat="31.78510000" lon="35.04499000">
        <ele>393.00000</ele>
        <time>2010-01-01T00:21:49Z</time>
      </trkpt>
      <trkpt lat="31.78519000" lon="35.04539000">
        <ele>388.00000</ele>
        <time>2010-01-01T00:22:03Z</time>
      </trkpt>
      <trkpt lat="31.78525000" lon="35.04574000">
        <ele>387.00000</ele>
        <time>2010-01-01T00:22:15Z</time>
      </trkpt>
      <trkpt lat="31.78526000" lon="35.04689000">
        <ele>392.00000</ele>
        <time>2010-01-01T00:22:54Z</time>
      </trkpt>
      <trkpt lat="31.78531000" lon="35.04724000">
        <ele>392.00000</ele>
        <time>2010-01-01T00:23:06Z</time>
      </trkpt>
      <trkpt lat="31.78547000" lon="35.04770000">
        <ele>397.00000</ele>
        <time>2010-01-01T00:23:23Z</time>
      </trkpt>
      <trkpt lat="31.78568000" lon="35.04816000">
        <ele>400.00000</ele>
        <time>2010-01-01T00:23:41Z</time>
      </trkpt>
      <trkpt lat="31.78580000" lon="35.04848000">
        <ele>399.00000</ele>
        <time>2010-01-01T00:23:53Z</time>
      </trkpt>
      <trkpt lat="31.78585000" lon="35.04862000">
        <ele>399.00000</ele>
        <time>2010-01-01T00:23:58Z</time>
      </trkpt>
      <trkpt lat="31.78601000" lon="35.04950000">
        <ele>401.00000</ele>
        <time>2010-01-01T00:24:29Z</time>
      </trkpt>
      <trkpt lat="31.78608000" lon="35.04977000">
        <ele>402.00000</ele>
        <time>2010-01-01T00:24:38Z</time>
      </trkpt>
      <trkpt lat="31.78625000" lon="35.05024000">
        <ele>402.00000</ele>
        <time>2010-01-01T00:24:56Z</time>
      </trkpt>
      <trkpt lat="31.78628000" lon="35.05035000">
        <ele>402.00000</ele>
        <time>2010-01-01T00:25:00Z</time>
      </trkpt>
      <trkpt lat="31.78628000" lon="35.05061000">
        <ele>402.00000</ele>
        <time>2010-01-01T00:25:08Z</time>
      </trkpt>
      <trkpt lat="31.78623000" lon="35.05086000">
        <ele>404.00000</ele>
        <time>2010-01-01T00:25:17Z</time>
      </trkpt>
      <trkpt lat="31.78618000" lon="35.05108000">
        <ele>407.00000</ele>
        <time>2010-01-01T00:25:25Z</time>
      </trkpt>
      <trkpt lat="31.78614000" lon="35.05149000">
        <ele>409.00000</ele>
        <time>2010-01-01T00:25:39Z</time>
      </trkpt>
      <trkpt lat="31.78617000" lon="35.05207000">
        <ele>408.00000</ele>
        <time>2010-01-01T00:25:59Z</time>
      </trkpt>
      <trkpt lat="31.78621000" lon="35.05232000">
        <ele>410.00000</ele>
        <time>2010-01-01T00:26:07Z</time>
      </trkpt>
      <trkpt lat="31.78621000" lon="35.05245000">
        <ele>410.00000</ele>
        <time>2010-01-01T00:26:12Z</time>
      </trkpt>
      <trkpt lat="31.78619000" lon="35.05255000">
        <ele>410.00000</ele>
        <time>2010-01-01T00:26:15Z</time>
      </trkpt>
      <trkpt lat="31.78604000" lon="35.05304000">
        <ele>408.00000</ele>
        <time>2010-01-01T00:26:33Z</time>
      </trkpt>
      <trkpt lat="31.78588000" lon="35.05342000">
        <ele>412.00000</ele>
        <time>2010-01-01T00:26:47Z</time>
      </trkpt>
      <trkpt lat="31.78542000" lon="35.05431000">
        <ele>420.00000</ele>
        <time>2010-01-01T00:27:23Z</time>
      </trkpt>
      <trkpt lat="31.78526000" lon="35.05478000">
        <ele>418.00000</ele>
        <time>2010-01-01T00:27:40Z</time>
      </trkpt>
      <trkpt lat="31.78513000" lon="35.05529000">
        <ele>425.00000</ele>
        <time>2010-01-01T00:27:58Z</time>
      </trkpt>
      <trkpt lat="31.78508000" lon="35.05561000">
        <ele>426.00000</ele>
        <time>2010-01-01T00:28:09Z</time>
      </trkpt>
      <trkpt lat="31.78511000" lon="35.05589000">
        <ele>426.00000</ele>
        <time>2010-01-01T00:28:19Z</time>
      </trkpt>
      <trkpt lat="31.78511000" lon="35.05615000">
        <ele>426.00000</ele>
        <time>2010-01-01T00:28:28Z</time>
      </trkpt>
      <trkpt lat="31.78516000" lon="35.05645000">
        <ele>422.00000</ele>
        <time>2010-01-01T00:28:38Z</time>
      </trkpt>
      <trkpt lat="31.78522000" lon="35.05658000">
        <ele>421.00000</ele>
        <time>2010-01-01T00:28:43Z</time>
      </trkpt>
      <trkpt lat="31.78537000" lon="35.05676000">
        <ele>422.00000</ele>
        <time>2010-01-01T00:28:52Z</time>
      </trkpt>
      <trkpt lat="31.78570000" lon="35.05708000">
        <ele>424.00000</ele>
        <time>2010-01-01T00:29:09Z</time>
      </trkpt>
      <trkpt lat="31.78582000" lon="35.05722000">
        <ele>423.00000</ele>
        <time>2010-01-01T00:29:16Z</time>
      </trkpt>
      <trkpt lat="31.78593000" lon="35.05747000">
        <ele>423.00000</ele>
        <time>2010-01-01T00:29:25Z</time>
      </trkpt>
      <trkpt lat="31.78598000" lon="35.05770000">
        <ele>423.00000</ele>
        <time>2010-01-01T00:29:33Z</time>
      </trkpt>
      <trkpt lat="31.78599000" lon="35.05780000">
        <ele>423.00000</ele>
        <time>2010-01-01T00:29:37Z</time>
      </trkpt>
      <trkpt lat="31.78599000" lon="35.05869000">
        <ele>435.00000</ele>
        <time>2010-01-01T00:30:07Z</time>
      </trkpt>
      <trkpt lat="31.78592000" lon="35.05907000">
        <ele>435.00000</ele>
        <time>2010-01-01T00:30:20Z</time>
      </trkpt>
      <trkpt lat="31.78592000" lon="35.05909000">
        <ele>435.00000</ele>
        <time>2010-01-01T00:30:21Z</time>
      </trkpt>
      <trkpt lat="31.78591000" lon="35.05936000">
        <ele>429.00000</ele>
        <time>2010-01-01T00:30:30Z</time>
      </trkpt>
      <trkpt lat="31.78593000" lon="35.05951000">
        <ele>427.00000</ele>
        <time>2010-01-01T00:30:35Z</time>
      </trkpt>
      <trkpt lat="31.78610000" lon="35.05993000">
        <ele>427.00000</ele>
        <time>2010-01-01T00:30:51Z</time>
      </trkpt>
      <trkpt lat="31.78625000" lon="35.06021000">
        <ele>433.00000</ele>
        <time>2010-01-01T00:31:02Z</time>
      </trkpt>
      <trkpt lat="31.78660000" lon="35.06083000">
        <ele>433.00000</ele>
        <time>2010-01-01T00:31:28Z</time>
      </trkpt>
      <trkpt lat="31.78674000" lon="35.06111000">
        <ele>437.00000</ele>
        <time>2010-01-01T00:31:39Z</time>
      </trkpt>
      <trkpt lat="31.78685000" lon="35.06135000">
        <ele>439.00000</ele>
        <time>2010-01-01T00:31:48Z</time>
      </trkpt>
      <trkpt lat="31.78702000" lon="35.06183000">
        <ele>433.00000</ele>
        <time>2010-01-01T00:32:06Z</time>
      </trkpt>
      <trkpt lat="31.78710000" lon="35.06211000">
        <ele>431.00000</ele>
        <time>2010-01-01T00:32:16Z</time>
      </trkpt>
      <trkpt lat="31.78722000" lon="35.06283000">
        <ele>430.00000</ele>
        <time>2010-01-01T00:32:41Z</time>
      </trkpt>
      <trkpt lat="31.78730000" lon="35.06322000">
        <ele>431.00000</ele>
        <time>2010-01-01T00:32:54Z</time>
      </trkpt>
      <trkpt lat="31.78732000" lon="35.06337000">
        <ele>431.00000</ele>
        <time>2010-01-01T00:33:00Z</time>
      </trkpt>
      <trkpt lat="31.78731000" lon="35.06346000">
        <ele>431.00000</ele>
        <time>2010-01-01T00:33:03Z</time>
      </trkpt>
      <trkpt lat="31.78722000" lon="35.06365000">
        <ele>431.00000</ele>
        <time>2010-01-01T00:33:10Z</time>
      </trkpt>
      <trkpt lat="31.78711000" lon="35.06380000">
        <ele>433.00000</ele>
        <time>2010-01-01T00:33:17Z</time>
      </trkpt>
      <trkpt lat="31.78700000" lon="35.06387000">
        <ele>434.00000</ele>
        <time>2010-01-01T00:33:22Z</time>
      </trkpt>
      <trkpt lat="31.78685000" lon="35.06393000">
        <ele>437.00000</ele>
        <time>2010-01-01T00:33:28Z</time>
      </trkpt>
      <trkpt lat="31.78592000" lon="35.06445000">
        <ele>443.00000</ele>
        <time>2010-01-01T00:34:09Z</time>
      </trkpt>
      <trkpt lat="31.78576000" lon="35.06452000">
        <ele>446.00000</ele>
        <time>2010-01-01T00:34:16Z</time>
      </trkpt>
      <trkpt lat="31.78565000" lon="35.06460000">
        <ele>446.00000</ele>
        <time>2010-01-01T00:34:21Z</time>
      </trkpt>
      <trkpt lat="31.78553000" lon="35.06473000">
        <ele>444.00000</ele>
        <time>2010-01-01T00:34:28Z</time>
      </trkpt>
      <trkpt lat="31.78505000" lon="35.06520000">
        <ele>444.00000</ele>
        <time>2010-01-01T00:34:53Z</time>
      </trkpt>
      <trkpt lat="31.78489000" lon="35.06531000">
        <ele>445.00000</ele>
        <time>2010-01-01T00:35:00Z</time>
      </trkpt>
      <trkpt lat="31.78472000" lon="35.06547000">
        <ele>445.00000</ele>
        <time>2010-01-01T00:35:09Z</time>
      </trkpt>
      <trkpt lat="31.78465000" lon="35.06558000">
        <ele>446.00000</ele>
        <time>2010-01-01T00:35:14Z</time>
      </trkpt>
      <trkpt lat="31.78451000" lon="35.06591000">
        <ele>449.00000</ele>
        <time>2010-01-01T00:35:26Z</time>
      </trkpt>
      <trkpt lat="31.78446000" lon="35.06612000">
        <ele>447.00000</ele>
        <time>2010-01-01T00:35:34Z</time>
      </trkpt>
      <trkpt lat="31.78435000" lon="35.06639000">
        <ele>449.00000</ele>
        <time>2010-01-01T00:35:44Z</time>
      </trkpt>
      <trkpt lat="31.78433000" lon="35.06651000">
        <ele>448.00000</ele>
        <time>2010-01-01T00:35:48Z</time>
      </trkpt>
      <trkpt lat="31.78433000" lon="35.06672000">
        <ele>447.00000</ele>
        <time>2010-01-01T00:35:55Z</time>
      </trkpt>
      <trkpt lat="31.78435000" lon="35.06682000">
        <ele>447.00000</ele>
        <time>2010-01-01T00:35:59Z</time>
      </trkpt>
      <trkpt lat="31.78439000" lon="35.06695000">
        <ele>447.00000</ele>
        <time>2010-01-01T00:36:03Z</time>
      </trkpt>
      <trkpt lat="31.78447000" lon="35.06707000">
        <ele>447.00000</ele>
        <time>2010-01-01T00:36:09Z</time>
      </trkpt>
      <trkpt lat="31.78469000" lon="35.06724000">
        <ele>447.00000</ele>
        <time>2010-01-01T00:36:19Z</time>
      </trkpt>
      <trkpt lat="31.78482000" lon="35.06730000">
        <ele>448.00000</ele>
        <time>2010-01-01T00:36:25Z</time>
      </trkpt>
      <trkpt lat="31.78517000" lon="35.06735000">
        <ele>448.00000</ele>
        <time>2010-01-01T00:36:39Z</time>
      </trkpt>
      <trkpt lat="31.78541000" lon="35.06731000">
        <ele>447.00000</ele>
        <time>2010-01-01T00:36:48Z</time>
      </trkpt>
      <trkpt lat="31.78551000" lon="35.06729000">
        <ele>447.00000</ele>
        <time>2010-01-01T00:36:53Z</time>
      </trkpt>
      <trkpt lat="31.78576000" lon="35.06721000">
        <ele>447.00000</ele>
        <time>2010-01-01T00:37:03Z</time>
      </trkpt>
      <trkpt lat="31.78587000" lon="35.06722000">
        <ele>447.00000</ele>
        <time>2010-01-01T00:37:07Z</time>
      </trkpt>
      <trkpt lat="31.78595000" lon="35.06726000">
        <ele>448.00000</ele>
        <time>2010-01-01T00:37:11Z</time>
      </trkpt>
      <trkpt lat="31.78599000" lon="35.06730000">
        <ele>448.00000</ele>
        <time>2010-01-01T00:37:13Z</time>
      </trkpt>
      <trkpt lat="31.78598000" lon="35.06730000">
        <ele>448.00000</ele>
        <time>2010-01-01T00:37:13Z</time>
      </trkpt>
      <trkpt lat="31.78600000" lon="35.06732000">
        <ele>448.00000</ele>
        <time>2010-01-01T00:37:14Z</time>
      </trkpt>
      <trkpt lat="31.78607000" lon="35.06745000">
        <ele>448.00000</ele>
        <time>2010-01-01T00:37:20Z</time>
      </trkpt>
      <trkpt lat="31.78615000" lon="35.06778000">
        <ele>451.00000</ele>
        <time>2010-01-01T00:37:31Z</time>
      </trkpt>
      <trkpt lat="31.78616000" lon="35.06788000">
        <ele>452.00000</ele>
        <time>2010-01-01T00:37:35Z</time>
      </trkpt>
      <trkpt lat="31.78615000" lon="35.06796000">
        <ele>452.00000</ele>
        <time>2010-01-01T00:37:37Z</time>
      </trkpt>
      <trkpt lat="31.78570000" lon="35.06918000">
        <ele>457.00000</ele>
        <time>2010-01-01T00:38:23Z</time>
      </trkpt>
      <trkpt lat="31.78561000" lon="35.06965000">
        <ele>456.00000</ele>
        <time>2010-01-01T00:38:39Z</time>
      </trkpt>
      <trkpt lat="31.78560000" lon="35.06979000">
        <ele>456.00000</ele>
        <time>2010-01-01T00:38:44Z</time>
      </trkpt>
      <trkpt lat="31.78561000" lon="35.06985000">
        <ele>456.00000</ele>
        <time>2010-01-01T00:38:46Z</time>
      </trkpt>
      <trkpt lat="31.78573000" lon="35.07009000">
        <ele>456.00000</ele>
        <time>2010-01-01T00:38:55Z</time>
      </trkpt>
      <trkpt lat="31.78586000" lon="35.07015000">
        <ele>456.00000</ele>
        <time>2010-01-01T00:39:01Z</time>
      </trkpt>
      <trkpt lat="31.78592000" lon="35.07026000">
        <ele>458.00000</ele>
        <time>2010-01-01T00:39:05Z</time>
      </trkpt>
      <trkpt lat="31.78601000" lon="35.07031000">
        <ele>459.00000</ele>
        <time>2010-01-01T00:39:09Z</time>
      </trkpt>
      <trkpt lat="31.78620000" lon="35.07046000">
        <ele>464.00000</ele>
        <time>2010-01-01T00:39:19Z</time>
      </trkpt>
      <trkpt lat="31.78629000" lon="35.07048000">
        <ele>464.00000</ele>
        <time>2010-01-01T00:39:22Z</time>
      </trkpt>
      <trkpt lat="31.78651000" lon="35.07056000">
        <ele>465.00000</ele>
        <time>2010-01-01T00:39:31Z</time>
      </trkpt>
      <trkpt lat="31.78685000" lon="35.07056000">
        <ele>465.00000</ele>
        <time>2010-01-01T00:39:45Z</time>
      </trkpt>
      <trkpt lat="31.78701000" lon="35.07052000">
        <ele>466.00000</ele>
        <time>2010-01-01T00:39:52Z</time>
      </trkpt>
      <trkpt lat="31.78829000" lon="35.07033000">
        <ele>468.00000</ele>
        <time>2010-01-01T00:40:43Z</time>
      </trkpt>
      <trkpt lat="31.78842000" lon="35.07030000">
        <ele>468.00000</ele>
        <time>2010-01-01T00:40:49Z</time>
      </trkpt>
      <trkpt lat="31.78851000" lon="35.07031000">
        <ele>469.00000</ele>
        <time>2010-01-01T00:40:52Z</time>
      </trkpt>
      <trkpt lat="31.78858000" lon="35.07034000">
        <ele>469.00000</ele>
        <time>2010-01-01T00:40:55Z</time>
      </trkpt>
      <trkpt lat="31.78869000" lon="35.07043000">
        <ele>469.00000</ele>
        <time>2010-01-01T00:41:01Z</time>
      </trkpt>
      <trkpt lat="31.78875000" lon="35.07053000">
        <ele>469.00000</ele>
        <time>2010-01-01T00:41:05Z</time>
      </trkpt>
      <trkpt lat="31.78879000" lon="35.07066000">
        <ele>470.00000</ele>
        <time>2010-01-01T00:41:09Z</time>
      </trkpt>
      <trkpt lat="31.78882000" lon="35.07094000">
        <ele>471.00000</ele>
        <time>2010-01-01T00:41:19Z</time>
      </trkpt>
      <trkpt lat="31.78877000" lon="35.07134000">
        <ele>471.00000</ele>
        <time>2010-01-01T00:41:33Z</time>
      </trkpt>
      <trkpt lat="31.78878000" lon="35.07224000">
        <ele>480.00000</ele>
        <time>2010-01-01T00:42:03Z</time>
      </trkpt>
      <trkpt lat="31.78892000" lon="35.07249000">
        <ele>478.00000</ele>
        <time>2010-01-01T00:42:14Z</time>
      </trkpt>
      <trkpt lat="31.78902000" lon="35.07260000">
        <ele>479.00000</ele>
        <time>2010-01-01T00:42:19Z</time>
      </trkpt>
      <trkpt lat="31.78936000" lon="35.07287000">
        <ele>479.00000</ele>
        <time>2010-01-01T00:42:35Z</time>
      </trkpt>
      <trkpt lat="31.78959000" lon="35.07304000">
        <ele>480.00000</ele>
        <time>2010-01-01T00:42:46Z</time>
      </trkpt>
      <trkpt lat="31.78977000" lon="35.07313000">
        <ele>480.00000</ele>
        <time>2010-01-01T00:42:54Z</time>
      </trkpt>
      <trkpt lat="31.78988000" lon="35.07321000">
        <ele>480.00000</ele>
        <time>2010-01-01T00:42:59Z</time>
      </trkpt>
      <trkpt lat="31.79003000" lon="35.07337000">
        <ele>480.00000</ele>
        <time>2010-01-01T00:43:07Z</time>
      </trkpt>
      <trkpt lat="31.79016000" lon="35.07355000">
        <ele>480.00000</ele>
        <time>2010-01-01T00:43:15Z</time>
      </trkpt>
      <trkpt lat="31.79034000" lon="35.07374000">
        <ele>481.00000</ele>
        <time>2010-01-01T00:43:25Z</time>
      </trkpt>
      <trkpt lat="31.79034000" lon="35.07373000">
        <ele>480.00000</ele>
        <time>2010-01-01T00:43:26Z</time>
      </trkpt>
      <trkpt lat="31.79045000" lon="35.07385000">
        <ele>481.00000</ele>
        <time>2010-01-01T00:43:32Z</time>
      </trkpt>
      <trkpt lat="31.79080000" lon="35.07413000">
        <ele>482.00000</ele>
        <time>2010-01-01T00:43:48Z</time>
      </trkpt>
      <trkpt lat="31.79102000" lon="35.07425000">
        <ele>482.00000</ele>
        <time>2010-01-01T00:43:58Z</time>
      </trkpt>
      <trkpt lat="31.79115000" lon="35.07434000">
        <ele>482.00000</ele>
        <time>2010-01-01T00:44:04Z</time>
      </trkpt>
      <trkpt lat="31.79128000" lon="35.07446000">
        <ele>482.00000</ele>
        <time>2010-01-01T00:44:11Z</time>
      </trkpt>
      <trkpt lat="31.79135000" lon="35.07455000">
        <ele>483.00000</ele>
        <time>2010-01-01T00:44:15Z</time>
      </trkpt>
      <trkpt lat="31.79138000" lon="35.07469000">
        <ele>483.00000</ele>
        <time>2010-01-01T00:44:20Z</time>
      </trkpt>
      <trkpt lat="31.79134000" lon="35.07495000">
        <ele>483.00000</ele>
        <time>2010-01-01T00:44:29Z</time>
      </trkpt>
      <trkpt lat="31.79127000" lon="35.07510000">
        <ele>484.00000</ele>
        <time>2010-01-01T00:44:35Z</time>
      </trkpt>
      <trkpt lat="31.79120000" lon="35.07518000">
        <ele>484.00000</ele>
        <time>2010-01-01T00:44:39Z</time>
      </trkpt>
      <trkpt lat="31.79082000" lon="35.07539000">
        <ele>485.00000</ele>
        <time>2010-01-01T00:44:55Z</time>
      </trkpt>
      <trkpt lat="31.78999000" lon="35.07582000">
        <ele>490.00000</ele>
        <time>2010-01-01T00:45:32Z</time>
      </trkpt>
      <trkpt lat="31.78978000" lon="35.07594000">
        <ele>493.00000</ele>
        <time>2010-01-01T00:45:41Z</time>
      </trkpt>
      <trkpt lat="31.78961000" lon="35.07606000">
        <ele>494.00000</ele>
        <time>2010-01-01T00:45:49Z</time>
      </trkpt>
      <trkpt lat="31.78894000" lon="35.07678000">
        <ele>496.00000</ele>
        <time>2010-01-01T00:46:25Z</time>
      </trkpt>
      <trkpt lat="31.78858000" lon="35.07737000">
        <ele>495.00000</ele>
        <time>2010-01-01T00:46:50Z</time>
      </trkpt>
      <trkpt lat="31.78854000" lon="35.07753000">
        <ele>497.00000</ele>
        <time>2010-01-01T00:46:56Z</time>
      </trkpt>
      <trkpt lat="31.78853000" lon="35.07764000">
        <ele>498.00000</ele>
        <time>2010-01-01T00:46:59Z</time>
      </trkpt>
      <trkpt lat="31.78855000" lon="35.07797000">
        <ele>499.00000</ele>
        <time>2010-01-01T00:47:11Z</time>
      </trkpt>
      <trkpt lat="31.78860000" lon="35.07813000">
        <ele>499.00000</ele>
        <time>2010-01-01T00:47:17Z</time>
      </trkpt>
      <trkpt lat="31.78881000" lon="35.07882000">
        <ele>506.00000</ele>
        <time>2010-01-01T00:47:41Z</time>
      </trkpt>
      <trkpt lat="31.78897000" lon="35.07908000">
        <ele>509.00000</ele>
        <time>2010-01-01T00:47:52Z</time>
      </trkpt>
      <trkpt lat="31.78902000" lon="35.07914000">
        <ele>510.00000</ele>
        <time>2010-01-01T00:47:55Z</time>
      </trkpt>
      <trkpt lat="31.78915000" lon="35.07921000">
        <ele>508.00000</ele>
        <time>2010-01-01T00:48:01Z</time>
      </trkpt>
      <trkpt lat="31.78937000" lon="35.07928000">
        <ele>509.00000</ele>
        <time>2010-01-01T00:48:10Z</time>
      </trkpt>
      <trkpt lat="31.78983000" lon="35.07938000">
        <ele>511.00000</ele>
        <time>2010-01-01T00:48:29Z</time>
      </trkpt>
      <trkpt lat="31.79048000" lon="35.07948000">
        <ele>514.00000</ele>
        <time>2010-01-01T00:48:55Z</time>
      </trkpt>
      <trkpt lat="31.79080000" lon="35.07957000">
        <ele>516.00000</ele>
        <time>2010-01-01T00:49:08Z</time>
      </trkpt>
      <trkpt lat="31.79091000" lon="35.07964000">
        <ele>516.00000</ele>
        <time>2010-01-01T00:49:13Z</time>
      </trkpt>
      <trkpt lat="31.79105000" lon="35.07975000">
        <ele>515.00000</ele>
        <time>2010-01-01T00:49:20Z</time>
      </trkpt>
      <trkpt lat="31.79179000" lon="35.08024000">
        <ele>511.00000</ele>
        <time>2010-01-01T00:49:54Z</time>
      </trkpt>
      <trkpt lat="31.79206000" lon="35.08038000">
        <ele>512.00000</ele>
        <time>2010-01-01T00:50:06Z</time>
      </trkpt>
      <trkpt lat="31.79228000" lon="35.08046000">
        <ele>514.00000</ele>
        <time>2010-01-01T00:50:15Z</time>
      </trkpt>
      <trkpt lat="31.79251000" lon="35.08050000">
        <ele>514.00000</ele>
        <time>2010-01-01T00:50:24Z</time>
      </trkpt>
      <trkpt lat="31.79278000" lon="35.08050000">
        <ele>514.00000</ele>
        <time>2010-01-01T00:50:35Z</time>
      </trkpt>
      <trkpt lat="31.79332000" lon="35.08046000">
        <ele>510.00000</ele>
        <time>2010-01-01T00:50:57Z</time>
      </trkpt>
      <trkpt lat="31.79357000" lon="35.08046000">
        <ele>509.00000</ele>
        <time>2010-01-01T00:51:07Z</time>
      </trkpt>
      <trkpt lat="31.79369000" lon="35.08049000">
        <ele>509.00000</ele>
        <time>2010-01-01T00:51:12Z</time>
      </trkpt>
      <trkpt lat="31.79426000" lon="35.08077000">
        <ele>512.00000</ele>
        <time>2010-01-01T00:51:36Z</time>
      </trkpt>
      <trkpt lat="31.79440000" lon="35.08090000">
        <ele>513.00000</ele>
        <time>2010-01-01T00:51:44Z</time>
      </trkpt>
      <trkpt lat="31.79450000" lon="35.08105000">
        <ele>513.00000</ele>
        <time>2010-01-01T00:51:50Z</time>
      </trkpt>
      <trkpt lat="31.79470000" lon="35.08126000">
        <ele>513.00000</ele>
        <time>2010-01-01T00:52:01Z</time>
      </trkpt>
      <trkpt lat="31.79487000" lon="35.08140000">
        <ele>512.00000</ele>
        <time>2010-01-01T00:52:09Z</time>
      </trkpt>
      <trkpt lat="31.79503000" lon="35.08157000">
        <ele>513.00000</ele>
        <time>2010-01-01T00:52:18Z</time>
      </trkpt>
      <trkpt lat="31.79510000" lon="35.08168000">
        <ele>513.00000</ele>
        <time>2010-01-01T00:52:22Z</time>
      </trkpt>
      <trkpt lat="31.79513000" lon="35.08176000">
        <ele>514.00000</ele>
        <time>2010-01-01T00:52:25Z</time>
      </trkpt>
      <trkpt lat="31.79514000" lon="35.08197000">
        <ele>515.00000</ele>
        <time>2010-01-01T00:52:33Z</time>
      </trkpt>
      <trkpt lat="31.79520000" lon="35.08226000">
        <ele>516.00000</ele>
        <time>2010-01-01T00:52:43Z</time>
      </trkpt>
      <trkpt lat="31.79519000" lon="35.08278000">
        <ele>516.00000</ele>
        <time>2010-01-01T00:53:00Z</time>
      </trkpt>
      <trkpt lat="31.79507000" lon="35.08365000">
        <ele>516.00000</ele>
        <time>2010-01-01T00:53:30Z</time>
      </trkpt>
      <trkpt lat="31.79501000" lon="35.08397000">
        <ele>517.00000</ele>
        <time>2010-01-01T00:53:41Z</time>
      </trkpt>
      <trkpt lat="31.79497000" lon="35.08408000">
        <ele>518.00000</ele>
        <time>2010-01-01T00:53:46Z</time>
      </trkpt>
      <trkpt lat="31.79489000" lon="35.08437000">
        <ele>518.00000</ele>
        <time>2010-01-01T00:53:56Z</time>
      </trkpt>
      <trkpt lat="31.79463000" lon="35.08557000">
        <ele>524.00000</ele>
        <time>2010-01-01T00:54:38Z</time>
      </trkpt>
      <trkpt lat="31.79458000" lon="35.08584000">
        <ele>524.00000</ele>
        <time>2010-01-01T00:54:47Z</time>
      </trkpt>
      <trkpt lat="31.79460000" lon="35.08598000">
        <ele>524.00000</ele>
        <time>2010-01-01T00:54:52Z</time>
      </trkpt>
      <trkpt lat="31.79440000" lon="35.08623000">
        <ele>525.00000</ele>
        <time>2010-01-01T00:55:04Z</time>
      </trkpt>
      <trkpt lat="31.79432000" lon="35.08637000">
        <ele>525.00000</ele>
        <time>2010-01-01T00:55:10Z</time>
      </trkpt>
      <trkpt lat="31.79421000" lon="35.08669000">
        <ele>525.00000</ele>
        <time>2010-01-01T00:55:21Z</time>
      </trkpt>
      <trkpt lat="31.79409000" lon="35.08713000">
        <ele>528.00000</ele>
        <time>2010-01-01T00:55:37Z</time>
      </trkpt>
      <trkpt lat="31.79392000" lon="35.08809000">
        <ele>531.00000</ele>
        <time>2010-01-01T00:56:11Z</time>
      </trkpt>
      <trkpt lat="31.79383000" lon="35.08828000">
        <ele>533.00000</ele>
        <time>2010-01-01T00:56:18Z</time>
      </trkpt>
      <trkpt lat="31.79377000" lon="35.08832000">
        <ele>535.00000</ele>
        <time>2010-01-01T00:56:21Z</time>
      </trkpt>
      <trkpt lat="31.79374000" lon="35.08832000">
        <ele>535.00000</ele>
        <time>2010-01-01T00:56:22Z</time>
      </trkpt>
      <trkpt lat="31.79370000" lon="35.08828000">
        <ele>536.00000</ele>
        <time>2010-01-01T00:56:24Z</time>
      </trkpt>
      <trkpt lat="31.79366000" lon="35.08813000">
        <ele>538.00000</ele>
        <time>2010-01-01T00:56:29Z</time>
      </trkpt>
      <trkpt lat="31.79366000" lon="35.08809000">
        <ele>538.00000</ele>
        <time>2010-01-01T00:56:31Z</time>
      </trkpt>
      <trkpt lat="31.79366000" lon="35.08808000">
        <ele>538.00000</ele>
        <time>2010-01-01T00:56:31Z</time>
      </trkpt>
      <trkpt lat="31.79363000" lon="35.08741000">
        <ele>541.00000</ele>
        <time>2010-01-01T00:56:54Z</time>
      </trkpt>
      <trkpt lat="31.79354000" lon="35.08644000">
        <ele>543.00000</ele>
        <time>2010-01-01T00:57:27Z</time>
      </trkpt>
      <trkpt lat="31.79328000" lon="35.08511000">
        <ele>552.00000</ele>
        <time>2010-01-01T00:58:14Z</time>
      </trkpt>
      <trkpt lat="31.79322000" lon="35.08487000">
        <ele>552.00000</ele>
        <time>2010-01-01T00:58:22Z</time>
      </trkpt>
      <trkpt lat="31.79311000" lon="35.08465000">
        <ele>552.00000</ele>
        <time>2010-01-01T00:58:31Z</time>
      </trkpt>
      <trkpt lat="31.79297000" lon="35.08450000">
        <ele>553.00000</ele>
        <time>2010-01-01T00:58:38Z</time>
      </trkpt>
      <trkpt lat="31.79254000" lon="35.08412000">
        <ele>556.00000</ele>
        <time>2010-01-01T00:59:00Z</time>
      </trkpt>
      <trkpt lat="31.79241000" lon="35.08399000">
        <ele>557.00000</ele>
        <time>2010-01-01T00:59:07Z</time>
      </trkpt>
      <trkpt lat="31.79204000" lon="35.08363000">
        <ele>563.00000</ele>
        <time>2010-01-01T00:59:26Z</time>
      </trkpt>
      <trkpt lat="31.79137000" lon="35.08288000">
        <ele>570.00000</ele>
        <time>2010-01-01T01:00:03Z</time>
      </trkpt>
      <trkpt lat="31.79137000" lon="35.08287000">
        <ele>569.00000</ele>
        <time>2010-01-01T01:00:03Z</time>
      </trkpt>
      <trkpt lat="31.79094000" lon="35.08240000">
        <ele>575.00000</ele>
        <time>2010-01-01T01:00:27Z</time>
      </trkpt>
      <trkpt lat="31.79065000" lon="35.08214000">
        <ele>578.00000</ele>
        <time>2010-01-01T01:00:41Z</time>
      </trkpt>
      <trkpt lat="31.78994000" lon="35.08165000">
        <ele>582.00000</ele>
        <time>2010-01-01T01:01:14Z</time>
      </trkpt>
      <trkpt lat="31.78980000" lon="35.08159000">
        <ele>581.00000</ele>
        <time>2010-01-01T01:01:20Z</time>
      </trkpt>
      <trkpt lat="31.78955000" lon="35.08158000">
        <ele>583.00000</ele>
        <time>2010-01-01T01:01:30Z</time>
      </trkpt>
      <trkpt lat="31.78912000" lon="35.08161000">
        <ele>589.00000</ele>
        <time>2010-01-01T01:01:48Z</time>
      </trkpt>
      <trkpt lat="31.78897000" lon="35.08160000">
        <ele>590.00000</ele>
        <time>2010-01-01T01:01:54Z</time>
      </trkpt>
      <trkpt lat="31.78880000" lon="35.08154000">
        <ele>590.00000</ele>
        <time>2010-01-01T01:02:01Z</time>
      </trkpt>
      <trkpt lat="31.78801000" lon="35.08112000">
        <ele>586.00000</ele>
        <time>2010-01-01T01:02:35Z</time>
      </trkpt>
      <trkpt lat="31.78786000" lon="35.08100000">
        <ele>587.00000</ele>
        <time>2010-01-01T01:02:43Z</time>
      </trkpt>
      <trkpt lat="31.78754000" lon="35.08072000">
        <ele>585.00000</ele>
        <time>2010-01-01T01:02:59Z</time>
      </trkpt>
      <trkpt lat="31.78701000" lon="35.08028000">
        <ele>588.00000</ele>
        <time>2010-01-01T01:03:25Z</time>
      </trkpt>
      <trkpt lat="31.78674000" lon="35.08000000">
        <ele>588.00000</ele>
        <time>2010-01-01T01:03:39Z</time>
      </trkpt>
      <trkpt lat="31.78658000" lon="35.07977000">
        <ele>587.00000</ele>
        <time>2010-01-01T01:03:49Z</time>
      </trkpt>
      <trkpt lat="31.78607000" lon="35.07889000">
        <ele>581.00000</ele>
        <time>2010-01-01T01:04:25Z</time>
      </trkpt>
      <trkpt lat="31.78589000" lon="35.07862000">
        <ele>584.00000</ele>
        <time>2010-01-01T01:04:37Z</time>
      </trkpt>
      <trkpt lat="31.78582000" lon="35.07855000">
        <ele>586.00000</ele>
        <time>2010-01-01T01:04:41Z</time>
      </trkpt>
      <trkpt lat="31.78580000" lon="35.07839000">
        <ele>587.00000</ele>
        <time>2010-01-01T01:04:46Z</time>
      </trkpt>
      <trkpt lat="31.78584000" lon="35.07823000">
        <ele>586.00000</ele>
        <time>2010-01-01T01:04:52Z</time>
      </trkpt>
      <trkpt lat="31.78584000" lon="35.07772000">
        <ele>588.00000</ele>
        <time>2010-01-01T01:05:09Z</time>
      </trkpt>
      <trkpt lat="31.78589000" lon="35.07743000">
        <ele>592.00000</ele>
        <time>2010-01-01T01:05:19Z</time>
      </trkpt>
      <trkpt lat="31.78607000" lon="35.07701000">
        <ele>593.00000</ele>
        <time>2010-01-01T01:05:35Z</time>
      </trkpt>
      <trkpt lat="31.78615000" lon="35.07677000">
        <ele>595.00000</ele>
        <time>2010-01-01T01:05:44Z</time>
      </trkpt>
      <trkpt lat="31.78623000" lon="35.07658000">
        <ele>597.00000</ele>
        <time>2010-01-01T01:05:51Z</time>
      </trkpt>
      <trkpt lat="31.78634000" lon="35.07637000">
        <ele>597.00000</ele>
        <time>2010-01-01T01:06:00Z</time>
      </trkpt>
      <trkpt lat="31.78649000" lon="35.07613000">
        <ele>596.00000</ele>
        <time>2010-01-01T01:06:10Z</time>
      </trkpt>
      <trkpt lat="31.78658000" lon="35.07595000">
        <ele>597.00000</ele>
        <time>2010-01-01T01:06:17Z</time>
      </trkpt>
      <trkpt lat="31.78661000" lon="35.07592000">
        <ele>596.00000</ele>
        <time>2010-01-01T01:06:18Z</time>
      </trkpt>
      <trkpt lat="31.78680000" lon="35.07567000">
        <ele>594.00000</ele>
        <time>2010-01-01T01:06:30Z</time>
      </trkpt>
      <trkpt lat="31.78686000" lon="35.07551000">
        <ele>593.00000</ele>
        <time>2010-01-01T01:06:36Z</time>
      </trkpt>
      <trkpt lat="31.78688000" lon="35.07543000">
        <ele>592.00000</ele>
        <time>2010-01-01T01:06:39Z</time>
      </trkpt>
      <trkpt lat="31.78684000" lon="35.07505000">
        <ele>588.00000</ele>
        <time>2010-01-01T01:06:52Z</time>
      </trkpt>
      <trkpt lat="31.78676000" lon="35.07477000">
        <ele>586.00000</ele>
        <time>2010-01-01T01:07:02Z</time>
      </trkpt>
      <trkpt lat="31.78663000" lon="35.07442000">
        <ele>584.00000</ele>
        <time>2010-01-01T01:07:15Z</time>
      </trkpt>
      <trkpt lat="31.78662000" lon="35.07430000">
        <ele>583.00000</ele>
        <time>2010-01-01T01:07:19Z</time>
      </trkpt>
      <trkpt lat="31.78655000" lon="35.07406000">
        <ele>581.00000</ele>
        <time>2010-01-01T01:07:27Z</time>
      </trkpt>
      <trkpt lat="31.78645000" lon="35.07352000">
        <ele>574.00000</ele>
        <time>2010-01-01T01:07:46Z</time>
      </trkpt>
      <trkpt lat="31.78635000" lon="35.07325000">
        <ele>572.00000</ele>
        <time>2010-01-01T01:07:56Z</time>
      </trkpt>
      <trkpt lat="31.78619000" lon="35.07287000">
        <ele>567.00000</ele>
        <time>2010-01-01T01:08:11Z</time>
      </trkpt>
      <trkpt lat="31.78606000" lon="35.07272000">
        <ele>562.00000</ele>
        <time>2010-01-01T01:08:18Z</time>
      </trkpt>
      <trkpt lat="31.78597000" lon="35.07267000">
        <ele>561.00000</ele>
        <time>2010-01-01T01:08:22Z</time>
      </trkpt>
      <trkpt lat="31.78586000" lon="35.07268000">
        <ele>563.00000</ele>
        <time>2010-01-01T01:08:26Z</time>
      </trkpt>
      <trkpt lat="31.78562000" lon="35.07279000">
        <ele>570.00000</ele>
        <time>2010-01-01T01:08:37Z</time>
      </trkpt>
      <trkpt lat="31.78548000" lon="35.07281000">
        <ele>570.00000</ele>
        <time>2010-01-01T01:08:42Z</time>
      </trkpt>
      <trkpt lat="31.78532000" lon="35.07290000">
        <ele>570.00000</ele>
        <time>2010-01-01T01:08:49Z</time>
      </trkpt>
      <trkpt lat="31.78522000" lon="35.07303000">
        <ele>573.00000</ele>
        <time>2010-01-01T01:08:55Z</time>
      </trkpt>
      <trkpt lat="31.78511000" lon="35.07314000">
        <ele>574.00000</ele>
        <time>2010-01-01T01:09:01Z</time>
      </trkpt>
      <trkpt lat="31.78503000" lon="35.07327000">
        <ele>577.00000</ele>
        <time>2010-01-01T01:09:07Z</time>
      </trkpt>
      <trkpt lat="31.78472000" lon="35.07369000">
        <ele>580.00000</ele>
        <time>2010-01-01T01:09:26Z</time>
      </trkpt>
      <trkpt lat="31.78462000" lon="35.07387000">
        <ele>582.00000</ele>
        <time>2010-01-01T01:09:33Z</time>
      </trkpt>
      <trkpt lat="31.78456000" lon="35.07402000">
        <ele>583.00000</ele>
        <time>2010-01-01T01:09:39Z</time>
      </trkpt>
      <trkpt lat="31.78451000" lon="35.07418000">
        <ele>585.00000</ele>
        <time>2010-01-01T01:09:44Z</time>
      </trkpt>
      <trkpt lat="31.78448000" lon="35.07439000">
        <ele>587.00000</ele>
        <time>2010-01-01T01:09:52Z</time>
      </trkpt>
      <trkpt lat="31.78438000" lon="35.07492000">
        <ele>586.00000</ele>
        <time>2010-01-01T01:10:10Z</time>
      </trkpt>
      <trkpt lat="31.78437000" lon="35.07518000">
        <ele>588.00000</ele>
        <time>2010-01-01T01:10:19Z</time>
      </trkpt>
      <trkpt lat="31.78413000" lon="35.07598000">
        <ele>588.00000</ele>
        <time>2010-01-01T01:10:48Z</time>
      </trkpt>
      <trkpt lat="31.78403000" lon="35.07643000">
        <ele>587.00000</ele>
        <time>2010-01-01T01:11:04Z</time>
      </trkpt>
      <trkpt lat="31.78398000" lon="35.07654000">
        <ele>585.00000</ele>
        <time>2010-01-01T01:11:08Z</time>
      </trkpt>
      <trkpt lat="31.78394000" lon="35.07688000">
        <ele>586.00000</ele>
        <time>2010-01-01T01:11:20Z</time>
      </trkpt>
      <trkpt lat="31.78394000" lon="35.07726000">
        <ele>583.00000</ele>
        <time>2010-01-01T01:11:32Z</time>
      </trkpt>
      <trkpt lat="31.78397000" lon="35.07742000">
        <ele>580.00000</ele>
        <time>2010-01-01T01:11:38Z</time>
      </trkpt>
      <trkpt lat="31.78414000" lon="35.07769000">
        <ele>582.00000</ele>
        <time>2010-01-01T01:11:49Z</time>
      </trkpt>
      <trkpt lat="31.78427000" lon="35.07785000">
        <ele>583.00000</ele>
        <time>2010-01-01T01:11:57Z</time>
      </trkpt>
      <trkpt lat="31.78439000" lon="35.07793000">
        <ele>585.00000</ele>
        <time>2010-01-01T01:12:03Z</time>
      </trkpt>
      <trkpt lat="31.78459000" lon="35.07802000">
        <ele>586.00000</ele>
        <time>2010-01-01T01:12:11Z</time>
      </trkpt>
      <trkpt lat="31.78482000" lon="35.07816000">
        <ele>586.00000</ele>
        <time>2010-01-01T01:12:21Z</time>
      </trkpt>
      <trkpt lat="31.78492000" lon="35.07820000">
        <ele>587.00000</ele>
        <time>2010-01-01T01:12:26Z</time>
      </trkpt>
      <trkpt lat="31.78517000" lon="35.07826000">
        <ele>590.00000</ele>
        <time>2010-01-01T01:12:36Z</time>
      </trkpt>
      <trkpt lat="31.78531000" lon="35.07831000">
        <ele>591.00000</ele>
        <time>2010-01-01T01:12:42Z</time>
      </trkpt>
      <trkpt lat="31.78549000" lon="35.07844000">
        <ele>590.00000</ele>
        <time>2010-01-01T01:12:50Z</time>
      </trkpt>
      <trkpt lat="31.78558000" lon="35.07864000">
        <ele>587.00000</ele>
        <time>2010-01-01T01:12:58Z</time>
      </trkpt>
      <trkpt lat="31.78554000" lon="35.07872000">
        <ele>587.00000</ele>
        <time>2010-01-01T01:13:01Z</time>
      </trkpt>
      <trkpt lat="31.78504000" lon="35.07980000">
        <ele>576.00000</ele>
        <time>2010-01-01T01:13:43Z</time>
      </trkpt>
      <trkpt lat="31.78497000" lon="35.07995000">
        <ele>574.00000</ele>
        <time>2010-01-01T01:13:49Z</time>
      </trkpt>
      <trkpt lat="31.78481000" lon="35.08024000">
        <ele>571.00000</ele>
        <time>2010-01-01T01:14:01Z</time>
      </trkpt>
      <trkpt lat="31.78443000" lon="35.08106000">
        <ele>570.00000</ele>
        <time>2010-01-01T01:14:32Z</time>
      </trkpt>
      <trkpt lat="31.78418000" lon="35.08148000">
        <ele>570.00000</ele>
        <time>2010-01-01T01:14:50Z</time>
      </trkpt>
      <trkpt lat="31.78386000" lon="35.08194000">
        <ele>567.00000</ele>
        <time>2010-01-01T01:15:10Z</time>
      </trkpt>
      <trkpt lat="31.78364000" lon="35.08233000">
        <ele>568.00000</ele>
        <time>2010-01-01T01:15:26Z</time>
      </trkpt>
      <trkpt lat="31.78320000" lon="35.08301000">
        <ele>569.00000</ele>
        <time>2010-01-01T01:15:55Z</time>
      </trkpt>
      <trkpt lat="31.78308000" lon="35.08323000">
        <ele>570.00000</ele>
        <time>2010-01-01T01:16:04Z</time>
      </trkpt>
      <trkpt lat="31.78286000" lon="35.08371000">
        <ele>570.00000</ele>
        <time>2010-01-01T01:16:22Z</time>
      </trkpt>
      <trkpt lat="31.78265000" lon="35.08425000">
        <ele>571.00000</ele>
        <time>2010-01-01T01:16:43Z</time>
      </trkpt>
      <trkpt lat="31.78247000" lon="35.08504000">
        <ele>576.00000</ele>
        <time>2010-01-01T01:17:10Z</time>
      </trkpt>
      <trkpt lat="31.78243000" lon="35.08511000">
        <ele>576.00000</ele>
        <time>2010-01-01T01:17:13Z</time>
      </trkpt>
      <trkpt lat="31.78230000" lon="35.08523000">
        <ele>577.00000</ele>
        <time>2010-01-01T01:17:20Z</time>
      </trkpt>
      <trkpt lat="31.78252000" lon="35.08598000">
        <ele>585.00000</ele>
        <time>2010-01-01T01:17:47Z</time>
      </trkpt>
      <trkpt lat="31.78257000" lon="35.08623000">
        <ele>587.00000</ele>
        <time>2010-01-01T01:17:56Z</time>
      </trkpt>
      <trkpt lat="31.78263000" lon="35.08695000">
        <ele>591.00000</ele>
        <time>2010-01-01T01:18:20Z</time>
      </trkpt>
      <trkpt lat="31.78270000" lon="35.08731000">
        <ele>592.00000</ele>
        <time>2010-01-01T01:18:33Z</time>
      </trkpt>
      <trkpt lat="31.78309000" lon="35.08877000">
        <ele>600.00000</ele>
        <time>2010-01-01T01:19:25Z</time>
      </trkpt>
      <trkpt lat="31.78316000" lon="35.08910000">
        <ele>601.00000</ele>
        <time>2010-01-01T01:19:37Z</time>
      </trkpt>
      <trkpt lat="31.78318000" lon="35.08960000">
        <ele>608.00000</ele>
        <time>2010-01-01T01:19:54Z</time>
      </trkpt>
      <trkpt lat="31.78326000" lon="35.09035000">
        <ele>611.00000</ele>
        <time>2010-01-01T01:20:19Z</time>
      </trkpt>
      <trkpt lat="31.78326000" lon="35.09034000">
        <ele>611.00000</ele>
        <time>2010-01-01T01:20:20Z</time>
      </trkpt>
      <trkpt lat="31.78327000" lon="35.09054000">
        <ele>613.00000</ele>
        <time>2010-01-01T01:20:26Z</time>
      </trkpt>
      <trkpt lat="31.78324000" lon="35.09163000">
        <ele>623.00000</ele>
        <time>2010-01-01T01:21:04Z</time>
      </trkpt>
      <trkpt lat="31.78325000" lon="35.09189000">
        <ele>625.00000</ele>
        <time>2010-01-01T01:21:12Z</time>
      </trkpt>
      <trkpt lat="31.78321000" lon="35.09225000">
        <ele>628.00000</ele>
        <time>2010-01-01T01:21:25Z</time>
      </trkpt>
      <trkpt lat="31.78296000" lon="35.09312000">
        <ele>635.00000</ele>
        <time>2010-01-01T01:21:56Z</time>
      </trkpt>
      <trkpt lat="31.78273000" lon="35.09402000">
        <ele>640.00000</ele>
        <time>2010-01-01T01:22:28Z</time>
      </trkpt>
      <trkpt lat="31.78257000" lon="35.09500000">
        <ele>643.00000</ele>
        <time>2010-01-01T01:23:02Z</time>
      </trkpt>
      <trkpt lat="31.78254000" lon="35.09516000">
        <ele>643.00000</ele>
        <time>2010-01-01T01:23:08Z</time>
      </trkpt>
      <trkpt lat="31.78240000" lon="35.09574000">
        <ele>647.00000</ele>
        <time>2010-01-01T01:23:28Z</time>
      </trkpt>
      <trkpt lat="31.78231000" lon="35.09600000">
        <ele>649.00000</ele>
        <time>2010-01-01T01:23:38Z</time>
      </trkpt>
      <trkpt lat="31.78209000" lon="35.09680000">
        <ele>647.00000</ele>
        <time>2010-01-01T01:24:06Z</time>
      </trkpt>
      <trkpt lat="31.78203000" lon="35.09707000">
        <ele>648.00000</ele>
        <time>2010-01-01T01:24:16Z</time>
      </trkpt>
      <trkpt lat="31.78199000" lon="35.09737000">
        <ele>650.00000</ele>
        <time>2010-01-01T01:24:26Z</time>
      </trkpt>
      <trkpt lat="31.78196000" lon="35.09771000">
        <ele>653.00000</ele>
        <time>2010-01-01T01:24:38Z</time>
      </trkpt>
      <trkpt lat="31.78196000" lon="35.09813000">
        <ele>655.00000</ele>
        <time>2010-01-01T01:24:52Z</time>
      </trkpt>
      <trkpt lat="31.78203000" lon="35.09882000">
        <ele>656.00000</ele>
        <time>2010-01-01T01:25:16Z</time>
      </trkpt>
      <trkpt lat="31.78221000" lon="35.10003000">
        <ele>652.00000</ele>
        <time>2010-01-01T01:25:57Z</time>
      </trkpt>
      <trkpt lat="31.78223000" lon="35.10095000">
        <ele>660.00000</ele>
        <time>2010-01-01T01:26:29Z</time>
      </trkpt>
      <trkpt lat="31.78227000" lon="35.10148000">
        <ele>661.00000</ele>
        <time>2010-01-01T01:26:47Z</time>
      </trkpt>
      <trkpt lat="31.78226000" lon="35.10186000">
        <ele>663.00000</ele>
        <time>2010-01-01T01:27:00Z</time>
      </trkpt>
      <trkpt lat="31.78223000" lon="35.10203000">
        <ele>665.00000</ele>
        <time>2010-01-01T01:27:06Z</time>
      </trkpt>
      <trkpt lat="31.78208000" lon="35.10245000">
        <ele>670.00000</ele>
        <time>2010-01-01T01:27:21Z</time>
      </trkpt>
      <trkpt lat="31.78193000" lon="35.10270000">
        <ele>673.00000</ele>
        <time>2010-01-01T01:27:32Z</time>
      </trkpt>
      <trkpt lat="31.78176000" lon="35.10298000">
        <ele>676.00000</ele>
        <time>2010-01-01T01:27:43Z</time>
      </trkpt>
      <trkpt lat="31.78154000" lon="35.10336000">
        <ele>677.00000</ele>
        <time>2010-01-01T01:27:59Z</time>
      </trkpt>
      <trkpt lat="31.78146000" lon="35.10353000">
        <ele>680.00000</ele>
        <time>2010-01-01T01:28:06Z</time>
      </trkpt>
      <trkpt lat="31.78143000" lon="35.10371000">
        <ele>682.00000</ele>
        <time>2010-01-01T01:28:12Z</time>
      </trkpt>
      <trkpt lat="31.78147000" lon="35.10400000">
        <ele>683.00000</ele>
        <time>2010-01-01T01:28:22Z</time>
      </trkpt>
      <trkpt lat="31.78156000" lon="35.10420000">
        <ele>682.00000</ele>
        <time>2010-01-01T01:28:29Z</time>
      </trkpt>
      <trkpt lat="31.78175000" lon="35.10476000">
        <ele>684.00000</ele>
        <time>2010-01-01T01:28:50Z</time>
      </trkpt>
      <trkpt lat="31.78263000" lon="35.10749000">
        <ele>696.00000</ele>
        <time>2010-01-01T01:30:29Z</time>
      </trkpt>
      <trkpt lat="31.78266000" lon="35.10762000">
        <ele>697.00000</ele>
        <time>2010-01-01T01:30:34Z</time>
      </trkpt>
      <trkpt lat="31.78266000" lon="35.10761000">
        <ele>697.00000</ele>
        <time>2010-01-01T01:30:34Z</time>
      </trkpt>
      <trkpt lat="31.78263000" lon="35.10749000">
        <ele>696.00000</ele>
        <time>2010-01-01T01:30:39Z</time>
      </trkpt>
      <trkpt lat="31.78175000" lon="35.10476000">
        <ele>684.00000</ele>
        <time>2010-01-01T01:32:18Z</time>
      </trkpt>
      <trkpt lat="31.78156000" lon="35.10420000">
        <ele>682.00000</ele>
        <time>2010-01-01T01:32:38Z</time>
      </trkpt>
      <trkpt lat="31.78147000" lon="35.10400000">
        <ele>683.00000</ele>
        <time>2010-01-01T01:32:46Z</time>
      </trkpt>
      <trkpt lat="31.78143000" lon="35.10371000">
        <ele>682.00000</ele>
        <time>2010-01-01T01:32:56Z</time>
      </trkpt>
      <trkpt lat="31.78146000" lon="35.10353000">
        <ele>680.00000</ele>
        <time>2010-01-01T01:33:02Z</time>
      </trkpt>
      <trkpt lat="31.78154000" lon="35.10336000">
        <ele>677.00000</ele>
        <time>2010-01-01T01:33:09Z</time>
      </trkpt>
      <trkpt lat="31.78176000" lon="35.10298000">
        <ele>676.00000</ele>
        <time>2010-01-01T01:33:25Z</time>
      </trkpt>
      <trkpt lat="31.78208000" lon="35.10245000">
        <ele>670.00000</ele>
        <time>2010-01-01T01:33:47Z</time>
      </trkpt>
      <trkpt lat="31.78223000" lon="35.10203000">
        <ele>665.00000</ele>
        <time>2010-01-01T01:34:02Z</time>
      </trkpt>
      <trkpt lat="31.78226000" lon="35.10186000">
        <ele>663.00000</ele>
        <time>2010-01-01T01:34:08Z</time>
      </trkpt>
      <trkpt lat="31.78227000" lon="35.10148000">
        <ele>661.00000</ele>
        <time>2010-01-01T01:34:21Z</time>
      </trkpt>
      <trkpt lat="31.78223000" lon="35.10095000">
        <ele>660.00000</ele>
        <time>2010-01-01T01:34:39Z</time>
      </trkpt>
      <trkpt lat="31.78221000" lon="35.10003000">
        <ele>652.00000</ele>
        <time>2010-01-01T01:35:10Z</time>
      </trkpt>
      <trkpt lat="31.78203000" lon="35.09882000">
        <ele>656.00000</ele>
        <time>2010-01-01T01:35:52Z</time>
      </trkpt>
      <trkpt lat="31.78196000" lon="35.09813000">
        <ele>655.00000</ele>
        <time>2010-01-01T01:36:16Z</time>
      </trkpt>
      <trkpt lat="31.78196000" lon="35.09771000">
        <ele>653.00000</ele>
        <time>2010-01-01T01:36:30Z</time>
      </trkpt>
      <trkpt lat="31.78199000" lon="35.09737000">
        <ele>650.00000</ele>
        <time>2010-01-01T01:36:42Z</time>
      </trkpt>
      <trkpt lat="31.78203000" lon="35.09707000">
        <ele>648.00000</ele>
        <time>2010-01-01T01:36:52Z</time>
      </trkpt>
      <trkpt lat="31.78209000" lon="35.09680000">
        <ele>647.00000</ele>
        <time>2010-01-01T01:37:02Z</time>
      </trkpt>
      <trkpt lat="31.78231000" lon="35.09600000">
        <ele>649.00000</ele>
        <time>2010-01-01T01:37:30Z</time>
      </trkpt>
      <trkpt lat="31.78240000" lon="35.09574000">
        <ele>647.00000</ele>
        <time>2010-01-01T01:37:40Z</time>
      </trkpt>
      <trkpt lat="31.78254000" lon="35.09516000">
        <ele>643.00000</ele>
        <time>2010-01-01T01:38:00Z</time>
      </trkpt>
      <trkpt lat="31.78257000" lon="35.09500000">
        <ele>643.00000</ele>
        <time>2010-01-01T01:38:06Z</time>
      </trkpt>
      <trkpt lat="31.78273000" lon="35.09402000">
        <ele>640.00000</ele>
        <time>2010-01-01T01:38:40Z</time>
      </trkpt>
      <trkpt lat="31.78296000" lon="35.09312000">
        <ele>635.00000</ele>
        <time>2010-01-01T01:39:12Z</time>
      </trkpt>
      <trkpt lat="31.78321000" lon="35.09225000">
        <ele>628.00000</ele>
        <time>2010-01-01T01:39:43Z</time>
      </trkpt>
      <trkpt lat="31.78325000" lon="35.09189000">
        <ele>625.00000</ele>
        <time>2010-01-01T01:39:55Z</time>
      </trkpt>
      <trkpt lat="31.78324000" lon="35.09163000">
        <ele>623.00000</ele>
        <time>2010-01-01T01:40:04Z</time>
      </trkpt>
      <trkpt lat="31.78327000" lon="35.09054000">
        <ele>613.00000</ele>
        <time>2010-01-01T01:40:41Z</time>
      </trkpt>
      <trkpt lat="31.78318000" lon="35.08960000">
        <ele>608.00000</ele>
        <time>2010-01-01T01:41:14Z</time>
      </trkpt>
      <trkpt lat="31.78316000" lon="35.08910000">
        <ele>601.00000</ele>
        <time>2010-01-01T01:41:31Z</time>
      </trkpt>
      <trkpt lat="31.78309000" lon="35.08877000">
        <ele>600.00000</ele>
        <time>2010-01-01T01:41:42Z</time>
      </trkpt>
      <trkpt lat="31.78270000" lon="35.08731000">
        <ele>592.00000</ele>
        <time>2010-01-01T01:42:34Z</time>
      </trkpt>
      <trkpt lat="31.78265000" lon="35.08702000">
        <ele>591.00000</ele>
        <time>2010-01-01T01:42:44Z</time>
      </trkpt>
      <trkpt lat="31.78264000" lon="35.08702000">
        <ele>591.00000</ele>
        <time>2010-01-01T01:42:45Z</time>
      </trkpt>
      <trkpt lat="31.78263000" lon="35.08695000">
        <ele>591.00000</ele>
        <time>2010-01-01T01:42:47Z</time>
      </trkpt>
      <trkpt lat="31.78257000" lon="35.08623000">
        <ele>587.00000</ele>
        <time>2010-01-01T01:43:12Z</time>
      </trkpt>
      <trkpt lat="31.78252000" lon="35.08598000">
        <ele>585.00000</ele>
        <time>2010-01-01T01:43:21Z</time>
      </trkpt>
      <trkpt lat="31.78230000" lon="35.08523000">
        <ele>577.00000</ele>
        <time>2010-01-01T01:43:48Z</time>
      </trkpt>
      <trkpt lat="31.78226000" lon="35.08495000">
        <ele>576.00000</ele>
        <time>2010-01-01T01:43:57Z</time>
      </trkpt>
      <trkpt lat="31.78225000" lon="35.08485000">
        <ele>576.00000</ele>
        <time>2010-01-01T01:44:01Z</time>
      </trkpt>
      <trkpt lat="31.78227000" lon="35.08467000">
        <ele>576.00000</ele>
        <time>2010-01-01T01:44:07Z</time>
      </trkpt>
      <trkpt lat="31.78233000" lon="35.08445000">
        <ele>573.00000</ele>
        <time>2010-01-01T01:44:15Z</time>
      </trkpt>
      <trkpt lat="31.78300000" lon="35.08253000">
        <ele>566.00000</ele>
        <time>2010-01-01T01:45:25Z</time>
      </trkpt>
      <trkpt lat="31.78322000" lon="35.08186000">
        <ele>564.00000</ele>
        <time>2010-01-01T01:45:50Z</time>
      </trkpt>
      <trkpt lat="31.78343000" lon="35.08121000">
        <ele>563.00000</ele>
        <time>2010-01-01T01:46:13Z</time>
      </trkpt>
      <trkpt lat="31.78346000" lon="35.08105000">
        <ele>565.00000</ele>
        <time>2010-01-01T01:46:19Z</time>
      </trkpt>
      <trkpt lat="31.78353000" lon="35.08043000">
        <ele>565.00000</ele>
        <time>2010-01-01T01:46:40Z</time>
      </trkpt>
      <trkpt lat="31.78352000" lon="35.08011000">
        <ele>563.00000</ele>
        <time>2010-01-01T01:46:51Z</time>
      </trkpt>
      <trkpt lat="31.78347000" lon="35.07990000">
        <ele>565.00000</ele>
        <time>2010-01-01T01:46:59Z</time>
      </trkpt>
      <trkpt lat="31.78339000" lon="35.07976000">
        <ele>568.00000</ele>
        <time>2010-01-01T01:47:04Z</time>
      </trkpt>
      <trkpt lat="31.78326000" lon="35.07962000">
        <ele>570.00000</ele>
        <time>2010-01-01T01:47:11Z</time>
      </trkpt>
      <trkpt lat="31.78302000" lon="35.07948000">
        <ele>571.00000</ele>
        <time>2010-01-01T01:47:22Z</time>
      </trkpt>
      <trkpt lat="31.78272000" lon="35.07935000">
        <ele>573.00000</ele>
        <time>2010-01-01T01:47:35Z</time>
      </trkpt>
      <trkpt lat="31.78257000" lon="35.07926000">
        <ele>574.00000</ele>
        <time>2010-01-01T01:47:42Z</time>
      </trkpt>
      <trkpt lat="31.78248000" lon="35.07918000">
        <ele>575.00000</ele>
        <time>2010-01-01T01:47:46Z</time>
      </trkpt>
      <trkpt lat="31.78230000" lon="35.07895000">
        <ele>577.00000</ele>
        <time>2010-01-01T01:47:57Z</time>
      </trkpt>
      <trkpt lat="31.78195000" lon="35.07837000">
        <ele>580.00000</ele>
        <time>2010-01-01T01:48:21Z</time>
      </trkpt>
      <trkpt lat="31.78180000" lon="35.07816000">
        <ele>577.00000</ele>
        <time>2010-01-01T01:48:30Z</time>
      </trkpt>
      <trkpt lat="31.78167000" lon="35.07804000">
        <ele>576.00000</ele>
        <time>2010-01-01T01:48:37Z</time>
      </trkpt>
      <trkpt lat="31.78144000" lon="35.07791000">
        <ele>576.00000</ele>
        <time>2010-01-01T01:48:47Z</time>
      </trkpt>
      <trkpt lat="31.78121000" lon="35.07785000">
        <ele>579.00000</ele>
        <time>2010-01-01T01:48:57Z</time>
      </trkpt>
      <trkpt lat="31.78104000" lon="35.07785000">
        <ele>581.00000</ele>
        <time>2010-01-01T01:49:03Z</time>
      </trkpt>
      <trkpt lat="31.78052000" lon="35.07793000">
        <ele>586.00000</ele>
        <time>2010-01-01T01:49:24Z</time>
      </trkpt>
      <trkpt lat="31.78030000" lon="35.07799000">
        <ele>586.00000</ele>
        <time>2010-01-01T01:49:33Z</time>
      </trkpt>
      <trkpt lat="31.78014000" lon="35.07806000">
        <ele>586.00000</ele>
        <time>2010-01-01T01:49:40Z</time>
      </trkpt>
      <trkpt lat="31.77936000" lon="35.07855000">
        <ele>592.00000</ele>
        <time>2010-01-01T01:50:16Z</time>
      </trkpt>
      <trkpt lat="31.77923000" lon="35.07860000">
        <ele>593.00000</ele>
        <time>2010-01-01T01:50:21Z</time>
      </trkpt>
      <trkpt lat="31.77918000" lon="35.07860000">
        <ele>593.00000</ele>
        <time>2010-01-01T01:50:23Z</time>
      </trkpt>
      <trkpt lat="31.77910000" lon="35.07854000">
        <ele>594.00000</ele>
        <time>2010-01-01T01:50:27Z</time>
      </trkpt>
      <trkpt lat="31.77908000" lon="35.07847000">
        <ele>594.00000</ele>
        <time>2010-01-01T01:50:29Z</time>
      </trkpt>
      <trkpt lat="31.77908000" lon="35.07836000">
        <ele>593.00000</ele>
        <time>2010-01-01T01:50:33Z</time>
      </trkpt>
      <trkpt lat="31.77915000" lon="35.07789000">
        <ele>587.00000</ele>
        <time>2010-01-01T01:50:49Z</time>
      </trkpt>
      <trkpt lat="31.77914000" lon="35.07759000">
        <ele>584.00000</ele>
        <time>2010-01-01T01:51:00Z</time>
      </trkpt>
      <trkpt lat="31.77909000" lon="35.07734000">
        <ele>584.00000</ele>
        <time>2010-01-01T01:51:08Z</time>
      </trkpt>
      <trkpt lat="31.77888000" lon="35.07680000">
        <ele>589.00000</ele>
        <time>2010-01-01T01:51:29Z</time>
      </trkpt>
      <trkpt lat="31.77885000" lon="35.07668000">
        <ele>591.00000</ele>
        <time>2010-01-01T01:51:33Z</time>
      </trkpt>
      <trkpt lat="31.77885000" lon="35.07654000">
        <ele>592.00000</ele>
        <time>2010-01-01T01:51:38Z</time>
      </trkpt>
      <trkpt lat="31.77888000" lon="35.07643000">
        <ele>592.00000</ele>
        <time>2010-01-01T01:51:42Z</time>
      </trkpt>
      <trkpt lat="31.77899000" lon="35.07630000">
        <ele>592.00000</ele>
        <time>2010-01-01T01:51:48Z</time>
      </trkpt>
      <trkpt lat="31.77935000" lon="35.07599000">
        <ele>591.00000</ele>
        <time>2010-01-01T01:52:06Z</time>
      </trkpt>
      <trkpt lat="31.77953000" lon="35.07577000">
        <ele>591.00000</ele>
        <time>2010-01-01T01:52:16Z</time>
      </trkpt>
      <trkpt lat="31.77962000" lon="35.07560000">
        <ele>591.00000</ele>
        <time>2010-01-01T01:52:23Z</time>
      </trkpt>
      <trkpt lat="31.77972000" lon="35.07524000">
        <ele>591.00000</ele>
        <time>2010-01-01T01:52:36Z</time>
      </trkpt>
      <trkpt lat="31.77979000" lon="35.07490000">
        <ele>596.00000</ele>
        <time>2010-01-01T01:52:48Z</time>
      </trkpt>
      <trkpt lat="31.77980000" lon="35.07474000">
        <ele>598.00000</ele>
        <time>2010-01-01T01:52:53Z</time>
      </trkpt>
      <trkpt lat="31.77980000" lon="35.07468000">
        <ele>598.00000</ele>
        <time>2010-01-01T01:52:55Z</time>
      </trkpt>
      <trkpt lat="31.77980000" lon="35.07467000">
        <ele>598.00000</ele>
        <time>2010-01-01T01:52:55Z</time>
      </trkpt>
      <trkpt lat="31.77979000" lon="35.07450000">
        <ele>598.00000</ele>
        <time>2010-01-01T01:53:01Z</time>
      </trkpt>
      <trkpt lat="31.77971000" lon="35.07419000">
        <ele>597.00000</ele>
        <time>2010-01-01T01:53:12Z</time>
      </trkpt>
      <trkpt lat="31.77936000" lon="35.07347000">
        <ele>601.00000</ele>
        <time>2010-01-01T01:53:41Z</time>
      </trkpt>
      <trkpt lat="31.77933000" lon="35.07331000">
        <ele>600.00000</ele>
        <time>2010-01-01T01:53:46Z</time>
      </trkpt>
      <trkpt lat="31.77934000" lon="35.07304000">
        <ele>599.00000</ele>
        <time>2010-01-01T01:53:55Z</time>
      </trkpt>
      <trkpt lat="31.77943000" lon="35.07249000">
        <ele>598.00000</ele>
        <time>2010-01-01T01:54:14Z</time>
      </trkpt>
      <trkpt lat="31.77946000" lon="35.07217000">
        <ele>598.00000</ele>
        <time>2010-01-01T01:54:25Z</time>
      </trkpt>
      <trkpt lat="31.77942000" lon="35.07156000">
        <ele>603.00000</ele>
        <time>2010-01-01T01:54:46Z</time>
      </trkpt>
      <trkpt lat="31.77944000" lon="35.07130000">
        <ele>605.00000</ele>
        <time>2010-01-01T01:54:55Z</time>
      </trkpt>
      <trkpt lat="31.77952000" lon="35.07108000">
        <ele>605.00000</ele>
        <time>2010-01-01T01:55:03Z</time>
      </trkpt>
      <trkpt lat="31.78005000" lon="35.07013000">
        <ele>603.00000</ele>
        <time>2010-01-01T01:55:42Z</time>
      </trkpt>
      <trkpt lat="31.78013000" lon="35.06997000">
        <ele>603.00000</ele>
        <time>2010-01-01T01:55:48Z</time>
      </trkpt>
      <trkpt lat="31.78018000" lon="35.06979000">
        <ele>604.00000</ele>
        <time>2010-01-01T01:55:55Z</time>
      </trkpt>
      <trkpt lat="31.78028000" lon="35.06933000">
        <ele>607.00000</ele>
        <time>2010-01-01T01:56:11Z</time>
      </trkpt>
      <trkpt lat="31.78035000" lon="35.06872000">
        <ele>607.00000</ele>
        <time>2010-01-01T01:56:32Z</time>
      </trkpt>
      <trkpt lat="31.78034000" lon="35.06851000">
        <ele>609.00000</ele>
        <time>2010-01-01T01:56:39Z</time>
      </trkpt>
      <trkpt lat="31.78030000" lon="35.06832000">
        <ele>610.00000</ele>
        <time>2010-01-01T01:56:45Z</time>
      </trkpt>
      <trkpt lat="31.78017000" lon="35.06790000">
        <ele>615.00000</ele>
        <time>2010-01-01T01:57:01Z</time>
      </trkpt>
      <trkpt lat="31.78015000" lon="35.06783000">
        <ele>616.00000</ele>
        <time>2010-01-01T01:57:03Z</time>
      </trkpt>
      <trkpt lat="31.78013000" lon="35.06769000">
        <ele>618.00000</ele>
        <time>2010-01-01T01:57:08Z</time>
      </trkpt>
      <trkpt lat="31.78013000" lon="35.06758000">
        <ele>619.00000</ele>
        <time>2010-01-01T01:57:12Z</time>
      </trkpt>
      <trkpt lat="31.78017000" lon="35.06745000">
        <ele>620.00000</ele>
        <time>2010-01-01T01:57:16Z</time>
      </trkpt>
      <trkpt lat="31.78026000" lon="35.06726000">
        <ele>620.00000</ele>
        <time>2010-01-01T01:57:24Z</time>
      </trkpt>
      <trkpt lat="31.78063000" lon="35.06672000">
        <ele>621.00000</ele>
        <time>2010-01-01T01:57:48Z</time>
      </trkpt>
      <trkpt lat="31.78078000" lon="35.06650000">
        <ele>619.00000</ele>
        <time>2010-01-01T01:57:57Z</time>
      </trkpt>
      <trkpt lat="31.78089000" lon="35.06631000">
        <ele>617.00000</ele>
        <time>2010-01-01T01:58:05Z</time>
      </trkpt>
      <trkpt lat="31.78099000" lon="35.06608000">
        <ele>617.00000</ele>
        <time>2010-01-01T01:58:14Z</time>
      </trkpt>
      <trkpt lat="31.78107000" lon="35.06574000">
        <ele>615.00000</ele>
        <time>2010-01-01T01:58:26Z</time>
      </trkpt>
      <trkpt lat="31.78108000" lon="35.06556000">
        <ele>614.00000</ele>
        <time>2010-01-01T01:58:32Z</time>
      </trkpt>
      <trkpt lat="31.78108000" lon="35.06510000">
        <ele>614.00000</ele>
        <time>2010-01-01T01:58:48Z</time>
      </trkpt>
      <trkpt lat="31.78106000" lon="35.06475000">
        <ele>615.00000</ele>
        <time>2010-01-01T01:58:59Z</time>
      </trkpt>
      <trkpt lat="31.78106000" lon="35.06464000">
        <ele>615.00000</ele>
        <time>2010-01-01T01:59:03Z</time>
      </trkpt>
      <trkpt lat="31.78106000" lon="35.06463000">
        <ele>615.00000</ele>
        <time>2010-01-01T01:59:04Z</time>
      </trkpt>
      <trkpt lat="31.78106000" lon="35.06430000">
        <ele>612.00000</ele>
        <time>2010-01-01T01:59:15Z</time>
      </trkpt>
      <trkpt lat="31.78106000" lon="35.06419000">
        <ele>611.00000</ele>
        <time>2010-01-01T01:59:18Z</time>
      </trkpt>
      <trkpt lat="31.78104000" lon="35.06387000">
        <ele>609.00000</ele>
        <time>2010-01-01T01:59:29Z</time>
      </trkpt>
      <trkpt lat="31.78097000" lon="35.06374000">
        <ele>608.00000</ele>
        <time>2010-01-01T01:59:35Z</time>
      </trkpt>
      <trkpt lat="31.78089000" lon="35.06368000">
        <ele>607.00000</ele>
        <time>2010-01-01T01:59:38Z</time>
      </trkpt>
      <trkpt lat="31.78078000" lon="35.06368000">
        <ele>607.00000</ele>
        <time>2010-01-01T01:59:43Z</time>
      </trkpt>
      <trkpt lat="31.78041000" lon="35.06383000">
        <ele>611.00000</ele>
        <time>2010-01-01T01:59:59Z</time>
      </trkpt>
      <trkpt lat="31.78037000" lon="35.06385000">
        <ele>611.00000</ele>
        <time>2010-01-01T02:00:00Z</time>
      </trkpt>
      <trkpt lat="31.77924000" lon="35.06455000">
        <ele>617.00000</ele>
        <time>2010-01-01T02:00:51Z</time>
      </trkpt>
      <trkpt lat="31.77917000" lon="35.06457000">
        <ele>618.00000</ele>
        <time>2010-01-01T02:00:54Z</time>
      </trkpt>
      <trkpt lat="31.77909000" lon="35.06457000">
        <ele>618.00000</ele>
        <time>2010-01-01T02:00:57Z</time>
      </trkpt>
      <trkpt lat="31.77904000" lon="35.06455000">
        <ele>618.00000</ele>
        <time>2010-01-01T02:01:00Z</time>
      </trkpt>
      <trkpt lat="31.77899000" lon="35.06449000">
        <ele>617.00000</ele>
        <time>2010-01-01T02:01:02Z</time>
      </trkpt>
      <trkpt lat="31.77895000" lon="35.06441000">
        <ele>617.00000</ele>
        <time>2010-01-01T02:01:06Z</time>
      </trkpt>
      <trkpt lat="31.77895000" lon="35.06438000">
        <ele>617.00000</ele>
        <time>2010-01-01T02:01:07Z</time>
      </trkpt>
      <trkpt lat="31.77895000" lon="35.06437000">
        <ele>616.00000</ele>
        <time>2010-01-01T02:01:07Z</time>
      </trkpt>
      <trkpt lat="31.77893000" lon="35.06428000">
        <ele>616.00000</ele>
        <time>2010-01-01T02:01:10Z</time>
      </trkpt>
      <trkpt lat="31.77897000" lon="35.06402000">
        <ele>613.00000</ele>
        <time>2010-01-01T02:01:19Z</time>
      </trkpt>
      <trkpt lat="31.77905000" lon="35.06378000">
        <ele>611.00000</ele>
        <time>2010-01-01T02:01:28Z</time>
      </trkpt>
      <trkpt lat="31.77940000" lon="35.06291000">
        <ele>604.00000</ele>
        <time>2010-01-01T02:02:01Z</time>
      </trkpt>
      <trkpt lat="31.77967000" lon="35.06241000">
        <ele>602.00000</ele>
        <time>2010-01-01T02:02:21Z</time>
      </trkpt>
      <trkpt lat="31.77989000" lon="35.06194000">
        <ele>599.00000</ele>
        <time>2010-01-01T02:02:39Z</time>
      </trkpt>
      <trkpt lat="31.78010000" lon="35.06145000">
        <ele>594.00000</ele>
        <time>2010-01-01T02:02:58Z</time>
      </trkpt>
      <trkpt lat="31.78017000" lon="35.06121000">
        <ele>595.00000</ele>
        <time>2010-01-01T02:03:06Z</time>
      </trkpt>
      <trkpt lat="31.78025000" lon="35.06086000">
        <ele>596.00000</ele>
        <time>2010-01-01T02:03:19Z</time>
      </trkpt>
      <trkpt lat="31.78040000" lon="35.05966000">
        <ele>593.00000</ele>
        <time>2010-01-01T02:04:00Z</time>
      </trkpt>
      <trkpt lat="31.78042000" lon="35.05938000">
        <ele>592.00000</ele>
        <time>2010-01-01T02:04:10Z</time>
      </trkpt>
      <trkpt lat="31.78042000" lon="35.05904000">
        <ele>589.00000</ele>
        <time>2010-01-01T02:04:21Z</time>
      </trkpt>
      <trkpt lat="31.78040000" lon="35.05883000">
        <ele>588.00000</ele>
        <time>2010-01-01T02:04:28Z</time>
      </trkpt>
      <trkpt lat="31.78035000" lon="35.05857000">
        <ele>588.00000</ele>
        <time>2010-01-01T02:04:37Z</time>
      </trkpt>
      <trkpt lat="31.78030000" lon="35.05841000">
        <ele>587.00000</ele>
        <time>2010-01-01T02:04:43Z</time>
      </trkpt>
      <trkpt lat="31.78026000" lon="35.05836000">
        <ele>586.00000</ele>
        <time>2010-01-01T02:04:46Z</time>
      </trkpt>
      <trkpt lat="31.78026000" lon="35.05835000">
        <ele>586.00000</ele>
        <time>2010-01-01T02:04:46Z</time>
      </trkpt>
      <trkpt lat="31.78021000" lon="35.05828000">
        <ele>586.00000</ele>
        <time>2010-01-01T02:04:49Z</time>
      </trkpt>
      <trkpt lat="31.78019000" lon="35.05827000">
        <ele>586.00000</ele>
        <time>2010-01-01T02:04:50Z</time>
      </trkpt>
      <trkpt lat="31.78002000" lon="35.05815000">
        <ele>585.00000</ele>
        <time>2010-01-01T02:04:58Z</time>
      </trkpt>
      <trkpt lat="31.77993000" lon="35.05813000">
        <ele>585.00000</ele>
        <time>2010-01-01T02:05:01Z</time>
      </trkpt>
      <trkpt lat="31.77978000" lon="35.05811000">
        <ele>586.00000</ele>
        <time>2010-01-01T02:05:07Z</time>
      </trkpt>
      <trkpt lat="31.77957000" lon="35.05814000">
        <ele>587.00000</ele>
        <time>2010-01-01T02:05:16Z</time>
      </trkpt>
      <trkpt lat="31.77935000" lon="35.05821000">
        <ele>589.00000</ele>
        <time>2010-01-01T02:05:25Z</time>
      </trkpt>
      <trkpt lat="31.77921000" lon="35.05822000">
        <ele>590.00000</ele>
        <time>2010-01-01T02:05:31Z</time>
      </trkpt>
      <trkpt lat="31.77914000" lon="35.05821000">
        <ele>590.00000</ele>
        <time>2010-01-01T02:05:33Z</time>
      </trkpt>
      <trkpt lat="31.77908000" lon="35.05816000">
        <ele>591.00000</ele>
        <time>2010-01-01T02:05:36Z</time>
      </trkpt>
      <trkpt lat="31.77903000" lon="35.05804000">
        <ele>590.00000</ele>
        <time>2010-01-01T02:05:41Z</time>
      </trkpt>
      <trkpt lat="31.77903000" lon="35.05793000">
        <ele>589.00000</ele>
        <time>2010-01-01T02:05:45Z</time>
      </trkpt>
      <trkpt lat="31.77906000" lon="35.05780000">
        <ele>587.00000</ele>
        <time>2010-01-01T02:05:49Z</time>
      </trkpt>
      <trkpt lat="31.77927000" lon="35.05733000">
        <ele>584.00000</ele>
        <time>2010-01-01T02:06:07Z</time>
      </trkpt>
      <trkpt lat="31.77961000" lon="35.05664000">
        <ele>582.00000</ele>
        <time>2010-01-01T02:06:35Z</time>
      </trkpt>
      <trkpt lat="31.78005000" lon="35.05565000">
        <ele>586.00000</ele>
        <time>2010-01-01T02:07:13Z</time>
      </trkpt>
      <trkpt lat="31.78020000" lon="35.05535000">
        <ele>588.00000</ele>
        <time>2010-01-01T02:07:24Z</time>
      </trkpt>
      <trkpt lat="31.78027000" lon="35.05528000">
        <ele>589.00000</ele>
        <time>2010-01-01T02:07:28Z</time>
      </trkpt>
      <trkpt lat="31.78037000" lon="35.05525000">
        <ele>588.00000</ele>
        <time>2010-01-01T02:07:32Z</time>
      </trkpt>
      <trkpt lat="31.78068000" lon="35.05527000">
        <ele>584.00000</ele>
        <time>2010-01-01T02:07:45Z</time>
      </trkpt>
      <trkpt lat="31.78109000" lon="35.05527000">
        <ele>583.00000</ele>
        <time>2010-01-01T02:08:01Z</time>
      </trkpt>
      <trkpt lat="31.78175000" lon="35.05537000">
        <ele>574.00000</ele>
        <time>2010-01-01T02:08:28Z</time>
      </trkpt>
      <trkpt lat="31.78187000" lon="35.05535000">
        <ele>572.00000</ele>
        <time>2010-01-01T02:08:33Z</time>
      </trkpt>
      <trkpt lat="31.78203000" lon="35.05531000">
        <ele>569.00000</ele>
        <time>2010-01-01T02:08:39Z</time>
      </trkpt>
      <trkpt lat="31.78220000" lon="35.05522000">
        <ele>567.00000</ele>
        <time>2010-01-01T02:08:47Z</time>
      </trkpt>
      <trkpt lat="31.78230000" lon="35.05515000">
        <ele>566.00000</ele>
        <time>2010-01-01T02:08:51Z</time>
      </trkpt>
      <trkpt lat="31.78238000" lon="35.05506000">
        <ele>566.00000</ele>
        <time>2010-01-01T02:08:56Z</time>
      </trkpt>
      <trkpt lat="31.78249000" lon="35.05484000">
        <ele>568.00000</ele>
        <time>2010-01-01T02:09:04Z</time>
      </trkpt>
      <trkpt lat="31.78263000" lon="35.05422000">
        <ele>563.00000</ele>
        <time>2010-01-01T02:09:26Z</time>
      </trkpt>
      <trkpt lat="31.78267000" lon="35.05409000">
        <ele>562.00000</ele>
        <time>2010-01-01T02:09:31Z</time>
      </trkpt>
      <trkpt lat="31.78276000" lon="35.05388000">
        <ele>559.00000</ele>
        <time>2010-01-01T02:09:39Z</time>
      </trkpt>
      <trkpt lat="31.78290000" lon="35.05354000">
        <ele>556.00000</ele>
        <time>2010-01-01T02:09:52Z</time>
      </trkpt>
      <trkpt lat="31.78298000" lon="35.05331000">
        <ele>554.00000</ele>
        <time>2010-01-01T02:10:00Z</time>
      </trkpt>
      <trkpt lat="31.78303000" lon="35.05309000">
        <ele>553.00000</ele>
        <time>2010-01-01T02:10:08Z</time>
      </trkpt>
      <trkpt lat="31.78304000" lon="35.05297000">
        <ele>553.00000</ele>
        <time>2010-01-01T02:10:12Z</time>
      </trkpt>
      <trkpt lat="31.78304000" lon="35.05262000">
        <ele>555.00000</ele>
        <time>2010-01-01T02:10:24Z</time>
      </trkpt>
      <trkpt lat="31.78307000" lon="35.05179000">
        <ele>547.00000</ele>
        <time>2010-01-01T02:10:52Z</time>
      </trkpt>
      <trkpt lat="31.78307000" lon="35.05136000">
        <ele>541.00000</ele>
        <time>2010-01-01T02:11:07Z</time>
      </trkpt>
      <trkpt lat="31.78311000" lon="35.05084000">
        <ele>530.00000</ele>
        <time>2010-01-01T02:11:25Z</time>
      </trkpt>
      <trkpt lat="31.78310000" lon="35.05006000">
        <ele>522.00000</ele>
        <time>2010-01-01T02:11:51Z</time>
      </trkpt>
      <trkpt lat="31.78303000" lon="35.04973000">
        <ele>523.00000</ele>
        <time>2010-01-01T02:12:03Z</time>
      </trkpt>
      <trkpt lat="31.78275000" lon="35.04886000">
        <ele>520.00000</ele>
        <time>2010-01-01T02:12:34Z</time>
      </trkpt>
      <trkpt lat="31.78264000" lon="35.04834000">
        <ele>517.00000</ele>
        <time>2010-01-01T02:12:53Z</time>
      </trkpt>
      <trkpt lat="31.78258000" lon="35.04788000">
        <ele>517.00000</ele>
        <time>2010-01-01T02:13:08Z</time>
      </trkpt>
      <trkpt lat="31.78260000" lon="35.04736000">
        <ele>513.00000</ele>
        <time>2010-01-01T02:13:26Z</time>
      </trkpt>
      <trkpt lat="31.78268000" lon="35.04651000">
        <ele>505.00000</ele>
        <time>2010-01-01T02:13:55Z</time>
      </trkpt>
      <trkpt lat="31.78278000" lon="35.04595000">
        <ele>504.00000</ele>
        <time>2010-01-01T02:14:15Z</time>
      </trkpt>
      <trkpt lat="31.78288000" lon="35.04554000">
        <ele>499.00000</ele>
        <time>2010-01-01T02:14:29Z</time>
      </trkpt>
      <trkpt lat="31.78289000" lon="35.04534000">
        <ele>495.00000</ele>
        <time>2010-01-01T02:14:36Z</time>
      </trkpt>
      <trkpt lat="31.78285000" lon="35.04516000">
        <ele>495.00000</ele>
        <time>2010-01-01T02:14:42Z</time>
      </trkpt>
      <trkpt lat="31.78268000" lon="35.04458000">
        <ele>497.00000</ele>
        <time>2010-01-01T02:15:03Z</time>
      </trkpt>
      <trkpt lat="31.78247000" lon="35.04398000">
        <ele>494.00000</ele>
        <time>2010-01-01T02:15:25Z</time>
      </trkpt>
      <trkpt lat="31.78244000" lon="35.04386000">
        <ele>494.00000</ele>
        <time>2010-01-01T02:15:30Z</time>
      </trkpt>
      <trkpt lat="31.78237000" lon="35.04328000">
        <ele>490.00000</ele>
        <time>2010-01-01T02:15:50Z</time>
      </trkpt>
      <trkpt lat="31.78234000" lon="35.04247000">
        <ele>473.00000</ele>
        <time>2010-01-01T02:16:17Z</time>
      </trkpt>
      <trkpt lat="31.78231000" lon="35.04233000">
        <ele>469.00000</ele>
        <time>2010-01-01T02:16:22Z</time>
      </trkpt>
      <trkpt lat="31.78227000" lon="35.04222000">
        <ele>467.00000</ele>
        <time>2010-01-01T02:16:26Z</time>
      </trkpt>
      <trkpt lat="31.78224000" lon="35.04216000">
        <ele>466.00000</ele>
        <time>2010-01-01T02:16:28Z</time>
      </trkpt>
      <trkpt lat="31.78220000" lon="35.04212000">
        <ele>467.00000</ele>
        <time>2010-01-01T02:16:31Z</time>
      </trkpt>
      <trkpt lat="31.78219000" lon="35.04212000">
        <ele>467.00000</ele>
        <time>2010-01-01T02:16:31Z</time>
      </trkpt>
      <trkpt lat="31.78216000" lon="35.04209000">
        <ele>467.00000</ele>
        <time>2010-01-01T02:16:33Z</time>
      </trkpt>
      <trkpt lat="31.78174000" lon="35.04193000">
        <ele>477.00000</ele>
        <time>2010-01-01T02:16:50Z</time>
      </trkpt>
      <trkpt lat="31.78165000" lon="35.04185000">
        <ele>477.00000</ele>
        <time>2010-01-01T02:16:55Z</time>
      </trkpt>
      <trkpt lat="31.78148000" lon="35.04147000">
        <ele>463.00000</ele>
        <time>2010-01-01T02:17:09Z</time>
      </trkpt>
      <trkpt lat="31.78140000" lon="35.04136000">
        <ele>458.00000</ele>
        <time>2010-01-01T02:17:14Z</time>
      </trkpt>
      <trkpt lat="31.78135000" lon="35.04132000">
        <ele>458.00000</ele>
        <time>2010-01-01T02:17:17Z</time>
      </trkpt>
      <trkpt lat="31.78101000" lon="35.04119000">
        <ele>469.00000</ele>
        <time>2010-01-01T02:17:31Z</time>
      </trkpt>
      <trkpt lat="31.78069000" lon="35.04103000">
        <ele>472.00000</ele>
        <time>2010-01-01T02:17:45Z</time>
      </trkpt>
      <trkpt lat="31.78045000" lon="35.04086000">
        <ele>468.00000</ele>
        <time>2010-01-01T02:17:56Z</time>
      </trkpt>
      <trkpt lat="31.78025000" lon="35.04069000">
        <ele>464.00000</ele>
        <time>2010-01-01T02:18:06Z</time>
      </trkpt>
      <trkpt lat="31.78012000" lon="35.04061000">
        <ele>461.00000</ele>
        <time>2010-01-01T02:18:12Z</time>
      </trkpt>
      <trkpt lat="31.77982000" lon="35.04054000">
        <ele>463.00000</ele>
        <time>2010-01-01T02:18:24Z</time>
      </trkpt>
      <trkpt lat="31.77974000" lon="35.04049000">
        <ele>462.00000</ele>
        <time>2010-01-01T02:18:28Z</time>
      </trkpt>
      <trkpt lat="31.77966000" lon="35.04041000">
        <ele>461.00000</ele>
        <time>2010-01-01T02:18:32Z</time>
      </trkpt>
      <trkpt lat="31.77941000" lon="35.04009000">
        <ele>454.00000</ele>
        <time>2010-01-01T02:18:47Z</time>
      </trkpt>
      <trkpt lat="31.77932000" lon="35.04002000">
        <ele>453.00000</ele>
        <time>2010-01-01T02:18:51Z</time>
      </trkpt>
      <trkpt lat="31.77908000" lon="35.03991000">
        <ele>457.00000</ele>
        <time>2010-01-01T02:19:01Z</time>
      </trkpt>
      <trkpt lat="31.77901000" lon="35.03986000">
        <ele>459.00000</ele>
        <time>2010-01-01T02:19:05Z</time>
      </trkpt>
      <trkpt lat="31.77893000" lon="35.03972000">
        <ele>460.00000</ele>
        <time>2010-01-01T02:19:10Z</time>
      </trkpt>
      <trkpt lat="31.77888000" lon="35.03956000">
        <ele>460.00000</ele>
        <time>2010-01-01T02:19:16Z</time>
      </trkpt>
      <trkpt lat="31.77860000" lon="35.03863000">
        <ele>448.00000</ele>
        <time>2010-01-01T02:19:50Z</time>
      </trkpt>
      <trkpt lat="31.77846000" lon="35.03809000">
        <ele>448.00000</ele>
        <time>2010-01-01T02:20:09Z</time>
      </trkpt>
      <trkpt lat="31.77815000" lon="35.03736000">
        <ele>440.00000</ele>
        <time>2010-01-01T02:20:37Z</time>
      </trkpt>
      <trkpt lat="31.77801000" lon="35.03690000">
        <ele>437.00000</ele>
        <time>2010-01-01T02:20:53Z</time>
      </trkpt>
      <trkpt lat="31.77792000" lon="35.03668000">
        <ele>434.00000</ele>
        <time>2010-01-01T02:21:02Z</time>
      </trkpt>
      <trkpt lat="31.77777000" lon="35.03637000">
        <ele>430.00000</ele>
        <time>2010-01-01T02:21:14Z</time>
      </trkpt>
      <trkpt lat="31.77770000" lon="35.03625000">
        <ele>431.00000</ele>
        <time>2010-01-01T02:21:19Z</time>
      </trkpt>
      <trkpt lat="31.77739000" lon="35.03589000">
        <ele>437.00000</ele>
        <time>2010-01-01T02:21:36Z</time>
      </trkpt>
      <trkpt lat="31.77734000" lon="35.03579000">
        <ele>436.00000</ele>
        <time>2010-01-01T02:21:40Z</time>
      </trkpt>
      <trkpt lat="31.77727000" lon="35.03562000">
        <ele>434.00000</ele>
        <time>2010-01-01T02:21:47Z</time>
      </trkpt>
      <trkpt lat="31.77717000" lon="35.03523000">
        <ele>424.00000</ele>
        <time>2010-01-01T02:22:00Z</time>
      </trkpt>
      <trkpt lat="31.77700000" lon="35.03413000">
        <ele>401.00000</ele>
        <time>2010-01-01T02:22:38Z</time>
      </trkpt>
      <trkpt lat="31.77696000" lon="35.03402000">
        <ele>400.00000</ele>
        <time>2010-01-01T02:22:43Z</time>
      </trkpt>
      <trkpt lat="31.77692000" lon="35.03395000">
        <ele>400.00000</ele>
        <time>2010-01-01T02:22:45Z</time>
      </trkpt>
      <trkpt lat="31.77681000" lon="35.03385000">
        <ele>401.00000</ele>
        <time>2010-01-01T02:22:51Z</time>
      </trkpt>
      <trkpt lat="31.77657000" lon="35.03372000">
        <ele>404.00000</ele>
        <time>2010-01-01T02:23:02Z</time>
      </trkpt>
      <trkpt lat="31.77604000" lon="35.03352000">
        <ele>400.00000</ele>
        <time>2010-01-01T02:23:24Z</time>
      </trkpt>
      <trkpt lat="31.77595000" lon="35.03347000">
        <ele>400.00000</ele>
        <time>2010-01-01T02:23:28Z</time>
      </trkpt>
      <trkpt lat="31.77594000" lon="35.03347000">
        <ele>400.00000</ele>
        <time>2010-01-01T02:23:28Z</time>
      </trkpt>
      <trkpt lat="31.77574000" lon="35.03334000">
        <ele>396.00000</ele>
        <time>2010-01-01T02:23:37Z</time>
      </trkpt>
      <trkpt lat="31.77530000" lon="35.03322000">
        <ele>377.00000</ele>
        <time>2010-01-01T02:23:55Z</time>
      </trkpt>
      <trkpt lat="31.77508000" lon="35.03335000">
        <ele>379.00000</ele>
        <time>2010-01-01T02:24:05Z</time>
      </trkpt>
      <trkpt lat="31.77489000" lon="35.03350000">
        <ele>383.00000</ele>
        <time>2010-01-01T02:24:14Z</time>
      </trkpt>
      <trkpt lat="31.77482000" lon="35.03358000">
        <ele>385.00000</ele>
        <time>2010-01-01T02:24:18Z</time>
      </trkpt>
      <trkpt lat="31.77468000" lon="35.03385000">
        <ele>391.00000</ele>
        <time>2010-01-01T02:24:29Z</time>
      </trkpt>
      <trkpt lat="31.77461000" lon="35.03393000">
        <ele>395.00000</ele>
        <time>2010-01-01T02:24:33Z</time>
      </trkpt>
      <trkpt lat="31.77455000" lon="35.03393000">
        <ele>396.00000</ele>
        <time>2010-01-01T02:24:35Z</time>
      </trkpt>
      <trkpt lat="31.77449000" lon="35.03388000">
        <ele>396.00000</ele>
        <time>2010-01-01T02:24:38Z</time>
      </trkpt>
      <trkpt lat="31.77445000" lon="35.03381000">
        <ele>396.00000</ele>
        <time>2010-01-01T02:24:41Z</time>
      </trkpt>
      <trkpt lat="31.77443000" lon="35.03371000">
        <ele>396.00000</ele>
        <time>2010-01-01T02:24:45Z</time>
      </trkpt>
      <trkpt lat="31.77443000" lon="35.03353000">
        <ele>394.00000</ele>
        <time>2010-01-01T02:24:51Z</time>
      </trkpt>
      <trkpt lat="31.77447000" lon="35.03328000">
        <ele>391.00000</ele>
        <time>2010-01-01T02:25:00Z</time>
      </trkpt>
      <trkpt lat="31.77459000" lon="35.03275000">
        <ele>384.00000</ele>
        <time>2010-01-01T02:25:18Z</time>
      </trkpt>
      <trkpt lat="31.77469000" lon="35.03249000">
        <ele>378.00000</ele>
        <time>2010-01-01T02:25:28Z</time>
      </trkpt>
      <trkpt lat="31.77478000" lon="35.03238000">
        <ele>378.00000</ele>
        <time>2010-01-01T02:25:33Z</time>
      </trkpt>
      <trkpt lat="31.77491000" lon="35.03230000">
        <ele>375.00000</ele>
        <time>2010-01-01T02:25:39Z</time>
      </trkpt>
      <trkpt lat="31.77528000" lon="35.03217000">
        <ele>363.00000</ele>
        <time>2010-01-01T02:25:54Z</time>
      </trkpt>
      <trkpt lat="31.77559000" lon="35.03203000">
        <ele>361.00000</ele>
        <time>2010-01-01T02:26:08Z</time>
      </trkpt>
      <trkpt lat="31.77564000" lon="35.03205000">
        <ele>360.00000</ele>
        <time>2010-01-01T02:26:10Z</time>
      </trkpt>
      <trkpt lat="31.77565000" lon="35.03208000">
        <ele>359.00000</ele>
        <time>2010-01-01T02:26:11Z</time>
      </trkpt>
      <trkpt lat="31.77561000" lon="35.03216000">
        <ele>357.00000</ele>
        <time>2010-01-01T02:26:14Z</time>
      </trkpt>
      <trkpt lat="31.77547000" lon="35.03229000">
        <ele>356.00000</ele>
        <time>2010-01-01T02:26:21Z</time>
      </trkpt>
      <trkpt lat="31.77530000" lon="35.03239000">
        <ele>360.00000</ele>
        <time>2010-01-01T02:26:29Z</time>
      </trkpt>
      <trkpt lat="31.77526000" lon="35.03246000">
        <ele>360.00000</ele>
        <time>2010-01-01T02:26:32Z</time>
      </trkpt>
      <trkpt lat="31.77529000" lon="35.03250000">
        <ele>359.00000</ele>
        <time>2010-01-01T02:26:34Z</time>
      </trkpt>
      <trkpt lat="31.77535000" lon="35.03249000">
        <ele>357.00000</ele>
        <time>2010-01-01T02:26:36Z</time>
      </trkpt>
      <trkpt lat="31.77562000" lon="35.03240000">
        <ele>353.00000</ele>
        <time>2010-01-01T02:26:47Z</time>
      </trkpt>
      <trkpt lat="31.77581000" lon="35.03231000">
        <ele>353.00000</ele>
        <time>2010-01-01T02:26:55Z</time>
      </trkpt>
      <trkpt lat="31.77602000" lon="35.03217000">
        <ele>355.00000</ele>
        <time>2010-01-01T02:27:05Z</time>
      </trkpt>
      <trkpt lat="31.77607000" lon="35.03212000">
        <ele>356.00000</ele>
        <time>2010-01-01T02:27:08Z</time>
      </trkpt>
      <trkpt lat="31.77615000" lon="35.03203000">
        <ele>356.00000</ele>
        <time>2010-01-01T02:27:12Z</time>
      </trkpt>
      <trkpt lat="31.77622000" lon="35.03200000">
        <ele>354.00000</ele>
        <time>2010-01-01T02:27:15Z</time>
      </trkpt>
      <trkpt lat="31.77627000" lon="35.03203000">
        <ele>352.00000</ele>
        <time>2010-01-01T02:27:17Z</time>
      </trkpt>
      <trkpt lat="31.77627000" lon="35.03210000">
        <ele>352.00000</ele>
        <time>2010-01-01T02:27:20Z</time>
      </trkpt>
      <trkpt lat="31.77625000" lon="35.03221000">
        <ele>351.00000</ele>
        <time>2010-01-01T02:27:24Z</time>
      </trkpt>
      <trkpt lat="31.77627000" lon="35.03228000">
        <ele>351.00000</ele>
        <time>2010-01-01T02:27:26Z</time>
      </trkpt>
      <trkpt lat="31.77632000" lon="35.03230000">
        <ele>350.00000</ele>
        <time>2010-01-01T02:27:28Z</time>
      </trkpt>
      <trkpt lat="31.77642000" lon="35.03226000">
        <ele>348.00000</ele>
        <time>2010-01-01T02:27:32Z</time>
      </trkpt>
      <trkpt lat="31.77653000" lon="35.03218000">
        <ele>346.00000</ele>
        <time>2010-01-01T02:27:38Z</time>
      </trkpt>
      <trkpt lat="31.77683000" lon="35.03204000">
        <ele>342.00000</ele>
        <time>2010-01-01T02:27:51Z</time>
      </trkpt>
      <trkpt lat="31.77702000" lon="35.03188000">
        <ele>338.00000</ele>
        <time>2010-01-01T02:28:00Z</time>
      </trkpt>
      <trkpt lat="31.77717000" lon="35.03154000">
        <ele>338.00000</ele>
        <time>2010-01-01T02:28:13Z</time>
      </trkpt>
      <trkpt lat="31.77724000" lon="35.03134000">
        <ele>339.00000</ele>
        <time>2010-01-01T02:28:20Z</time>
      </trkpt>
      <trkpt lat="31.77732000" lon="35.03115000">
        <ele>341.00000</ele>
        <time>2010-01-01T02:28:27Z</time>
      </trkpt>
      <trkpt lat="31.77746000" lon="35.03097000">
        <ele>338.00000</ele>
        <time>2010-01-01T02:28:36Z</time>
      </trkpt>
      <trkpt lat="31.77760000" lon="35.03084000">
        <ele>337.00000</ele>
        <time>2010-01-01T02:28:43Z</time>
      </trkpt>
      <trkpt lat="31.77774000" lon="35.03074000">
        <ele>335.00000</ele>
        <time>2010-01-01T02:28:49Z</time>
      </trkpt>
      <trkpt lat="31.77788000" lon="35.03055000">
        <ele>334.00000</ele>
        <time>2010-01-01T02:28:58Z</time>
      </trkpt>
      <trkpt lat="31.77804000" lon="35.03021000">
        <ele>333.00000</ele>
        <time>2010-01-01T02:29:11Z</time>
      </trkpt>
      <trkpt lat="31.77810000" lon="35.03002000">
        <ele>332.00000</ele>
        <time>2010-01-01T02:29:18Z</time>
      </trkpt>
      <trkpt lat="31.77814000" lon="35.02964000">
        <ele>332.00000</ele>
        <time>2010-01-01T02:29:31Z</time>
      </trkpt>
      <trkpt lat="31.77814000" lon="35.02932000">
        <ele>331.00000</ele>
        <time>2010-01-01T02:29:42Z</time>
      </trkpt>
      <trkpt lat="31.77816000" lon="35.02819000">
        <ele>329.00000</ele>
        <time>2010-01-01T02:30:21Z</time>
      </trkpt>
      <trkpt lat="31.77822000" lon="35.02760000">
        <ele>327.00000</ele>
        <time>2010-01-01T02:30:41Z</time>
      </trkpt>
      <trkpt lat="31.77819000" lon="35.02752000">
        <ele>326.00000</ele>
        <time>2010-01-01T02:30:44Z</time>
      </trkpt>
      <trkpt lat="31.77812000" lon="35.02744000">
        <ele>325.00000</ele>
        <time>2010-01-01T02:30:48Z</time>
      </trkpt>
      <trkpt lat="31.77754000" lon="35.02720000">
        <ele>320.00000</ele>
        <time>2010-01-01T02:31:12Z</time>
      </trkpt>
      <trkpt lat="31.77741000" lon="35.02712000">
        <ele>321.00000</ele>
        <time>2010-01-01T02:31:18Z</time>
      </trkpt>
      <trkpt lat="31.77733000" lon="35.02703000">
        <ele>320.00000</ele>
        <time>2010-01-01T02:31:23Z</time>
      </trkpt>
      <trkpt lat="31.77724000" lon="35.02690000">
        <ele>319.00000</ele>
        <time>2010-01-01T02:31:28Z</time>
      </trkpt>
      <trkpt lat="31.77714000" lon="35.02667000">
        <ele>318.00000</ele>
        <time>2010-01-01T02:31:37Z</time>
      </trkpt>
      <trkpt lat="31.77712000" lon="35.02655000">
        <ele>318.00000</ele>
        <time>2010-01-01T02:31:41Z</time>
      </trkpt>
      <trkpt lat="31.77714000" lon="35.02638000">
        <ele>316.00000</ele>
        <time>2010-01-01T02:31:47Z</time>
      </trkpt>
      <trkpt lat="31.77719000" lon="35.02627000">
        <ele>314.00000</ele>
        <time>2010-01-01T02:31:51Z</time>
      </trkpt>
      <trkpt lat="31.77726000" lon="35.02617000">
        <ele>312.00000</ele>
        <time>2010-01-01T02:31:56Z</time>
      </trkpt>
      <trkpt lat="31.77737000" lon="35.02607000">
        <ele>309.00000</ele>
        <time>2010-01-01T02:32:01Z</time>
      </trkpt>
      <trkpt lat="31.77762000" lon="35.02588000">
        <ele>302.00000</ele>
        <time>2010-01-01T02:32:13Z</time>
      </trkpt>
      <trkpt lat="31.77769000" lon="35.02578000">
        <ele>300.00000</ele>
        <time>2010-01-01T02:32:18Z</time>
      </trkpt>
      <trkpt lat="31.77776000" lon="35.02559000">
        <ele>297.00000</ele>
        <time>2010-01-01T02:32:25Z</time>
      </trkpt>
      <trkpt lat="31.77794000" lon="35.02481000">
        <ele>299.00000</ele>
        <time>2010-01-01T02:32:52Z</time>
      </trkpt>
      <trkpt lat="31.77801000" lon="35.02462000">
        <ele>297.00000</ele>
        <time>2010-01-01T02:32:59Z</time>
      </trkpt>
      <trkpt lat="31.77808000" lon="35.02451000">
        <ele>295.00000</ele>
        <time>2010-01-01T02:33:04Z</time>
      </trkpt>
      <trkpt lat="31.77857000" lon="35.02384000">
        <ele>297.00000</ele>
        <time>2010-01-01T02:33:34Z</time>
      </trkpt>
      <trkpt lat="31.77865000" lon="35.02370000">
        <ele>295.00000</ele>
        <time>2010-01-01T02:33:40Z</time>
      </trkpt>
      <trkpt lat="31.77881000" lon="35.02337000">
        <ele>293.00000</ele>
        <time>2010-01-01T02:33:53Z</time>
      </trkpt>
      <trkpt lat="31.77915000" lon="35.02252000">
        <ele>297.00000</ele>
        <time>2010-01-01T02:34:25Z</time>
      </trkpt>
      <trkpt lat="31.77936000" lon="35.02208000">
        <ele>296.00000</ele>
        <time>2010-01-01T02:34:42Z</time>
      </trkpt>
      <trkpt lat="31.77955000" lon="35.02172000">
        <ele>295.00000</ele>
        <time>2010-01-01T02:34:56Z</time>
      </trkpt>
      <trkpt lat="31.77978000" lon="35.02133000">
        <ele>293.00000</ele>
        <time>2010-01-01T02:35:12Z</time>
      </trkpt>
      <trkpt lat="31.78017000" lon="35.02067000">
        <ele>288.00000</ele>
        <time>2010-01-01T02:35:40Z</time>
      </trkpt>
      <trkpt lat="31.78027000" lon="35.02049000">
        <ele>285.00000</ele>
        <time>2010-01-01T02:35:47Z</time>
      </trkpt>
      <trkpt lat="31.78049000" lon="35.02005000">
        <ele>282.00000</ele>
        <time>2010-01-01T02:36:04Z</time>
      </trkpt>
      <trkpt lat="31.78056000" lon="35.01977000">
        <ele>280.00000</ele>
        <time>2010-01-01T02:36:14Z</time>
      </trkpt>
      <trkpt lat="31.78058000" lon="35.01956000">
        <ele>282.00000</ele>
        <time>2010-01-01T02:36:21Z</time>
      </trkpt>
      <trkpt lat="31.78057000" lon="35.01934000">
        <ele>282.00000</ele>
        <time>2010-01-01T02:36:29Z</time>
      </trkpt>
      <trkpt lat="31.78050000" lon="35.01897000">
        <ele>282.00000</ele>
        <time>2010-01-01T02:36:42Z</time>
      </trkpt>
      <trkpt lat="31.78043000" lon="35.01878000">
        <ele>283.00000</ele>
        <time>2010-01-01T02:36:49Z</time>
      </trkpt>
      <trkpt lat="31.78030000" lon="35.01849000">
        <ele>284.00000</ele>
        <time>2010-01-01T02:37:00Z</time>
      </trkpt>
      <trkpt lat="31.78016000" lon="35.01833000">
        <ele>283.00000</ele>
        <time>2010-01-01T02:37:08Z</time>
      </trkpt>
      <trkpt lat="31.77993000" lon="35.01820000">
        <ele>282.00000</ele>
        <time>2010-01-01T02:37:18Z</time>
      </trkpt>
      <trkpt lat="31.77887000" lon="35.01787000">
        <ele>283.00000</ele>
        <time>2010-01-01T02:38:02Z</time>
      </trkpt>
      <trkpt lat="31.77873000" lon="35.01772000">
        <ele>280.00000</ele>
        <time>2010-01-01T02:38:10Z</time>
      </trkpt>
      <trkpt lat="31.77859000" lon="35.01751000">
        <ele>278.00000</ele>
        <time>2010-01-01T02:38:19Z</time>
      </trkpt>
      <trkpt lat="31.77840000" lon="35.01703000">
        <ele>277.00000</ele>
        <time>2010-01-01T02:38:37Z</time>
      </trkpt>
      <trkpt lat="31.77833000" lon="35.01673000">
        <ele>273.00000</ele>
        <time>2010-01-01T02:38:47Z</time>
      </trkpt>
      <trkpt lat="31.77825000" lon="35.01645000">
        <ele>269.00000</ele>
        <time>2010-01-01T02:38:57Z</time>
      </trkpt>
      <trkpt lat="31.77826000" lon="35.01604000">
        <ele>266.00000</ele>
        <time>2010-01-01T02:39:11Z</time>
      </trkpt>
      <trkpt lat="31.77819000" lon="35.01596000">
        <ele>266.00000</ele>
        <time>2010-01-01T02:39:15Z</time>
      </trkpt>
      <trkpt lat="31.77817000" lon="35.01594000">
        <ele>266.00000</ele>
        <time>2010-01-01T02:39:16Z</time>
      </trkpt>
      <trkpt lat="31.77801000" lon="35.01594000">
        <ele>266.00000</ele>
        <time>2010-01-01T02:39:23Z</time>
      </trkpt>
      <trkpt lat="31.77800000" lon="35.01594000">
        <ele>266.00000</ele>
        <time>2010-01-01T02:39:23Z</time>
      </trkpt>
      <trkpt lat="31.77789000" lon="35.01599000">
        <ele>267.00000</ele>
        <time>2010-01-01T02:39:28Z</time>
      </trkpt>
      <trkpt lat="31.77772000" lon="35.01605000">
        <ele>270.00000</ele>
        <time>2010-01-01T02:39:35Z</time>
      </trkpt>
    </trkseg>
  </trk>
</gpx>

